Time,TemperatureF,DewpointF,PressureIn,WindDirection,WindDirectionDegrees,WindSpeedMPH,WindSpeedGustMPH,Humidity,HourlyPrecipIn,Conditions,Clouds,dailyrainin,SoftwareType,DateUTC
2013-02-21 00:00:00,22.8,17.6,29.45,NE,37,9.0,14.0,80,0.00,,,0.00,WUHU216DAVISVP2,2013-02-21 05:00:00,
2013-02-21 00:05:00,22.8,17.6,29.45,NNE,12,9.0,14.0,80,0.00,,,0.00,WUHU216DAVISVP2,2013-02-21 05:05:00,
2013-02-21 00:10:00,22.9,17.7,29.45,NNE,23,5.0,14.0,80,0.00,,,0.00,WUHU216DAVISVP2,2013-02-21 05:10:00,
2013-02-21 00:11:00,22.9,17.7,29.45,NE,42,8.0,14.0,80,0.00,,,0.00,WUHU216DAVISVP2,2013-02-21 05:11:00,
2013-02-21 00:15:00,22.9,17.7,29.46,NE,39,8.0,14.0,80,0.00,,,0.00,WUHU216DAVISVP2,2013-02-21 05:15:00,
2013-02-21 00:16:00,22.9,17.7,29.46,NE,42,9.0,14.0,80,0.00,,,0.00,WUHU216DAVISVP2,2013-02-21 05:16:00,
2013-02-21 00:20:00,22.9,17.7,29.46,NE,36,11.0,13.0,80,0.00,,,0.00,WUHU216DAVISVP2,2013-02-21 05:20:00,
2013-02-21 00:21:00,22.9,17.7,29.46,NE,35,7.0,13.0,80,0.00,,,0.00,WUHU216DAVISVP2,2013-02-21 05:21:00,
2013-02-21 00:25:00,23.0,17.8,29.46,NNE,17,9.0,11.0,80,0.00,,,0.00,WUHU216DAVISVP2,2013-02-21 05:25:00,
2013-02-21 00:26:00,23.0,17.8,29.46,NNE,22,9.0,11.0,80,0.00,,,0.00,WUHU216DAVISVP2,2013-02-21 05:26:00,
2013-02-21 00:30:00,22.9,17.7,29.46,NE,43,9.0,13.0,80,0.00,,,0.00,WUHU216DAVISVP2,2013-02-21 05:30:00,
2013-02-21 00:31:00,22.9,17.7,29.46,North,9,8.0,13.0,80,0.00,,,0.00,WUHU216DAVISVP2,2013-02-21 05:31:00,
2013-02-21 00:35:00,22.9,17.7,29.46,NNE,25,7.0,13.0,80,0.00,,,0.00,WUHU216DAVISVP2,2013-02-21 05:35:00,
2013-02-21 00:36:00,22.9,17.7,29.46,NNE,12,8.0,13.0,80,0.00,,,0.00,WUHU216DAVISVP2,2013-02-21 05:36:00,
2013-02-21 00:40:00,22.9,17.4,29.46,NE,36,10.0,14.0,79,0.00,,,0.00,WUHU216DAVISVP2,2013-02-21 05:40:00,
2013-02-21 00:41:00,22.9,17.4,29.46,North,4,10.0,14.0,79,0.00,,,0.00,WUHU216DAVISVP2,2013-02-21 05:41:00,
2013-02-21 00:42:00,22.9,17.4,29.46,NNE,13,11.0,14.0,79,0.00,,,0.00,WUHU216DAVISVP2,2013-02-21 05:42:00,
2013-02-21 00:45:00,22.8,17.3,29.46,North,9,11.0,14.0,79,0.00,,,0.00,WUHU216DAVISVP2,2013-02-21 05:45:00,
2013-02-21 00:46:00,22.8,17.3,29.46,NNE,16,7.0,14.0,79,0.00,,,0.00,WUHU216DAVISVP2,2013-02-21 05:46:00,
2013-02-21 00:47:00,22.8,17.3,29.46,NNE,25,7.0,14.0,79,0.00,,,0.00,WUHU216DAVISVP2,2013-02-21 05:47:00,
2013-02-21 00:50:00,22.9,17.4,29.46,North,10,8.0,14.0,79,0.00,,,0.00,WUHU216DAVISVP2,2013-02-21 05:50:00,
2013-02-21 00:51:00,22.8,17.3,29.46,North,10,7.0,14.0,79,0.00,,,0.00,WUHU216DAVISVP2,2013-02-21 05:51:00,
2013-02-21 00:52:00,22.9,17.4,29.46,NNW,346,9.0,14.0,79,0.00,,,0.00,WUHU216DAVISVP2,2013-02-21 05:52:00,
2013-02-21 00:55:00,22.9,17.4,29.47,NNW,345,6.0,14.0,79,0.00,,,0.00,WUHU216DAVISVP2,2013-02-21 05:55:00,
2013-02-21 00:56:00,22.9,17.4,29.47,NNE,18,10.0,14.0,79,0.00,,,0.00,WUHU216DAVISVP2,2013-02-21 05:56:00,
2013-02-21 00:57:00,22.9,17.4,29.47,North,4,7.0,14.0,79,0.00,,,0.00,WUHU216DAVISVP2,2013-02-21 05:57:00,
2013-02-21 00:58:00,22.8,17.3,29.47,North,354,6.0,14.0,79,0.00,,,0.00,WUHU216DAVISVP2,2013-02-21 05:58:00,
2013-02-21 01:01:00,22.9,17.4,29.47,North,354,6.0,12.0,79,0.00,,,0.00,WUHU216DAVISVP2,2013-02-21 06:01:00,
2013-02-21 01:02:00,22.9,17.4,29.46,NNE,12,6.0,12.0,79,0.00,,,0.00,WUHU216DAVISVP2,2013-02-21 06:02:00,
2013-02-21 01:03:00,22.9,17.4,29.47,NNE,18,5.0,12.0,79,0.00,,,0.00,WUHU216DAVISVP2,2013-02-21 06:03:00,
2013-02-21 01:06:00,22.9,17.4,29.46,North,354,10.0,12.0,79,0.00,,,0.00,WUHU216DAVISVP2,2013-02-21 06:06:00,
2013-02-21 01:07:00,22.9,17.4,29.46,North,4,5.0,12.0,79,0.00,,,0.00,WUHU216DAVISVP2,2013-02-21 06:07:00,
2013-02-21 01:08:00,22.9,17.4,29.46,NNE,18,6.0,12.0,79,0.00,,,0.00,WUHU216DAVISVP2,2013-02-21 06:08:00,
2013-02-21 01:11:00,22.9,17.4,29.47,NNE,26,8.0,12.0,79,0.00,,,0.00,WUHU216DAVISVP2,2013-02-21 06:11:00,
2013-02-21 01:12:00,22.9,17.4,29.46,NE,35,10.0,12.0,79,0.00,,,0.00,WUHU216DAVISVP2,2013-02-21 06:12:00,
2013-02-21 01:13:00,22.9,17.4,29.46,NNE,31,11.0,13.0,79,0.00,,,0.00,WUHU216DAVISVP2,2013-02-21 06:13:00,
2013-02-21 01:16:00,22.9,17.4,29.46,NNE,26,12.0,13.0,79,0.00,,,0.00,WUHU216DAVISVP2,2013-02-21 06:16:00,
2013-02-21 01:17:00,22.9,17.4,29.46,North,11,10.0,13.0,79,0.00,,,0.00,WUHU216DAVISVP2,2013-02-21 06:17:00,
2013-02-21 01:18:00,22.9,17.4,29.46,North,11,9.0,13.0,79,0.00,,,0.00,WUHU216DAVISVP2,2013-02-21 06:18:00,
2013-02-21 01:19:00,22.9,17.4,29.46,NNE,23,10.0,13.0,79,0.00,,,0.00,WUHU216DAVISVP2,2013-02-21 06:19:00,
2013-02-21 01:21:00,22.9,17.4,29.46,NNE,30,9.0,13.0,79,0.00,,,0.00,WUHU216DAVISVP2,2013-02-21 06:21:00,
2013-02-21 01:22:00,22.9,17.4,29.46,North,4,10.0,13.0,79,0.00,,,0.00,WUHU216DAVISVP2,2013-02-21 06:22:00,
2013-02-21 01:23:00,22.9,17.1,29.47,NNW,345,10.0,13.0,78,0.00,,,0.00,WUHU216DAVISVP2,2013-02-21 06:23:00,
2013-02-21 01:24:00,22.9,17.1,29.47,North,8,8.0,13.0,78,0.00,,,0.00,WUHU216DAVISVP2,2013-02-21 06:24:00,
2013-02-21 01:26:00,22.9,17.1,29.47,NNE,18,8.0,13.0,78,0.00,,,0.00,WUHU216DAVISVP2,2013-02-21 06:26:00,
2013-02-21 01:27:00,22.9,17.1,29.47,NE,38,7.0,13.0,78,0.00,,,0.00,WUHU216DAVISVP2,2013-02-21 06:27:00,
2013-02-21 01:28:00,22.9,17.1,29.47,ENE,64,7.0,13.0,78,0.00,,,0.00,WUHU216DAVISVP2,2013-02-21 06:28:00,
2013-02-21 01:29:00,22.9,17.1,29.46,NNE,25,6.0,13.0,78,0.00,,,0.00,WUHU216DAVISVP2,2013-02-21 06:29:00,
2013-02-21 01:31:00,22.9,17.1,29.46,NE,45,9.0,13.0,78,0.00,,,0.00,WUHU216DAVISVP2,2013-02-21 06:31:00,
2013-02-21 01:32:00,22.9,17.1,29.46,NNE,31,11.0,13.0,78,0.00,,,0.00,WUHU216DAVISVP2,2013-02-21 06:32:00,
2013-02-21 01:33:00,22.9,17.1,29.46,NNE,16,10.0,13.0,78,0.00,,,0.00,WUHU216DAVISVP2,2013-02-21 06:33:00,
2013-02-21 01:34:00,22.9,17.1,29.47,NNE,18,10.0,13.0,78,0.00,,,0.00,WUHU216DAVISVP2,2013-02-21 06:34:00,
2013-02-21 01:37:00,22.9,17.1,29.47,NNE,23,9.0,12.0,78,0.00,,,0.00,WUHU216DAVISVP2,2013-02-21 06:37:00,
2013-02-21 01:38:00,22.9,17.1,29.47,NNE,25,8.0,12.0,78,0.00,,,0.00,WUHU216DAVISVP2,2013-02-21 06:38:00,
2013-02-21 01:39:00,22.9,17.1,29.47,North,4,6.0,12.0,78,0.00,,,0.00,WUHU216DAVISVP2,2013-02-21 06:39:00,
2013-02-21 01:42:00,22.9,17.1,29.46,NNE,21,5.0,12.0,78,0.00,,,0.00,WUHU216DAVISVP2,2013-02-21 06:42:00,
2013-02-21 01:43:00,22.9,17.1,29.46,NNE,20,6.0,12.0,78,0.00,,,0.00,WUHU216DAVISVP2,2013-02-21 06:43:00,
2013-02-21 01:44:00,22.9,17.1,29.46,North,359,6.0,12.0,78,0.00,,,0.00,WUHU216DAVISVP2,2013-02-21 06:44:00,
2013-02-21 01:47:00,22.9,17.1,29.47,NNE,13,6.0,12.0,78,0.00,,,0.00,WUHU216DAVISVP2,2013-02-21 06:47:00,
2013-02-21 01:48:00,22.9,17.1,29.47,North,11,9.0,12.0,78,0.00,,,0.00,WUHU216DAVISVP2,2013-02-21 06:48:00,
2013-02-21 01:49:00,22.9,17.4,29.47,NNE,14,10.0,12.0,79,0.00,,,0.00,WUHU216DAVISVP2,2013-02-21 06:49:00,
2013-02-21 01:52:00,22.9,17.1,29.47,NE,39,8.0,12.0,78,0.00,,,0.00,WUHU216DAVISVP2,2013-02-21 06:52:00,
2013-02-21 01:53:00,22.9,17.1,29.47,NNE,30,6.0,12.0,78,0.00,,,0.00,WUHU216DAVISVP2,2013-02-21 06:53:00,
2013-02-21 01:54:00,22.9,17.1,29.47,NNE,29,6.0,12.0,78,0.00,,,0.00,WUHU216DAVISVP2,2013-02-21 06:54:00,
2013-02-21 01:57:00,22.9,17.4,29.46,ENE,59,7.0,12.0,79,0.00,,,0.00,WUHU216DAVISVP2,2013-02-21 06:57:00,
2013-02-21 01:58:00,22.9,17.4,29.46,NNE,27,7.0,12.0,79,0.00,,,0.00,WUHU216DAVISVP2,2013-02-21 06:58:00,
2013-02-21 02:00:00,22.9,17.4,29.46,ENE,60,7.0,12.0,79,0.00,,,0.00,WUHU216DAVISVP2,2013-02-21 07:00:00,
2013-02-21 02:02:00,22.9,17.1,29.46,NE,53,7.0,12.0,78,0.00,,,0.00,WUHU216DAVISVP2,2013-02-21 07:02:00,
2013-02-21 02:03:00,22.9,17.1,29.47,ENE,78,7.0,12.0,78,0.00,,,0.00,WUHU216DAVISVP2,2013-02-21 07:03:00,
2013-02-21 02:05:00,22.9,17.1,29.47,NNE,33,9.0,12.0,78,0.00,,,0.00,WUHU216DAVISVP2,2013-02-21 07:05:00,
2013-02-21 02:07:00,22.9,17.1,29.47,NE,35,9.0,12.0,78,0.00,,,0.00,WUHU216DAVISVP2,2013-02-21 07:07:00,
2013-02-21 02:08:00,22.9,17.1,29.47,NNE,33,8.0,12.0,78,0.00,,,0.00,WUHU216DAVISVP2,2013-02-21 07:08:00,
2013-02-21 02:10:00,22.9,17.1,29.46,NE,43,7.0,12.0,78,0.00,,,0.00,WUHU216DAVISVP2,2013-02-21 07:10:00,
2013-02-21 02:13:00,22.9,17.1,29.47,NE,55,1.0,12.0,78,0.00,,,0.00,WUHU216DAVISVP2,2013-02-21 07:13:00,
2013-02-21 02:15:00,22.9,17.1,29.47,NE,35,8.0,12.0,78,0.00,,,0.00,WUHU216DAVISVP2,2013-02-21 07:15:00,
2013-02-21 02:18:00,22.9,17.1,29.47,NE,50,8.0,12.0,78,0.00,,,0.00,WUHU216DAVISVP2,2013-02-21 07:18:00,
2013-02-21 02:20:00,22.9,17.1,29.47,NNE,25,7.0,12.0,78,0.00,,,0.00,WUHU216DAVISVP2,2013-02-21 07:20:00,
2013-02-21 02:23:00,22.9,17.1,29.47,NNE,30,5.0,12.0,78,0.00,,,0.00,WUHU216DAVISVP2,2013-02-21 07:23:00,
2013-02-21 02:24:00,22.9,17.1,29.47,NNE,17,5.0,12.0,78,0.00,,,0.00,WUHU216DAVISVP2,2013-02-21 07:24:00,
2013-02-21 02:25:00,22.9,17.1,29.47,NE,39,8.0,12.0,78,0.00,,,0.00,WUHU216DAVISVP2,2013-02-21 07:25:00,
2013-02-21 02:28:00,22.9,17.1,29.47,NNE,19,8.0,11.0,78,0.00,,,0.00,WUHU216DAVISVP2,2013-02-21 07:28:00,
2013-02-21 02:29:00,22.9,17.1,29.47,NNE,16,6.0,11.0,78,0.00,,,0.00,WUHU216DAVISVP2,2013-02-21 07:29:00,
2013-02-21 02:30:00,23.0,17.2,29.47,NE,38,7.0,11.0,78,0.00,,,0.00,WUHU216DAVISVP2,2013-02-21 07:30:00,
2013-02-21 02:34:00,23.0,17.2,29.47,North,359,5.0,11.0,78,0.00,,,0.00,WUHU216DAVISVP2,2013-02-21 07:34:00,
2013-02-21 02:36:00,23.0,17.2,29.46,NNE,18,6.0,11.0,78,0.00,,,0.00,WUHU216DAVISVP2,2013-02-21 07:36:00,
2013-02-21 02:39:00,23.0,17.2,29.46,North,4,9.0,11.0,78,0.00,,,0.00,WUHU216DAVISVP2,2013-02-21 07:39:00,
2013-02-21 02:41:00,23.0,17.2,29.47,NNE,18,8.0,9.0,78,0.00,,,0.00,WUHU216DAVISVP2,2013-02-21 07:41:00,
2013-02-21 02:44:00,23.0,17.2,29.47,ENE,58,7.0,9.0,78,0.00,,,0.00,WUHU216DAVISVP2,2013-02-21 07:44:00,
2013-02-21 02:46:00,23.1,17.3,29.47,NNE,13,8.0,11.0,78,0.00,,,0.00,WUHU216DAVISVP2,2013-02-21 07:46:00,
2013-02-21 02:49:00,23.1,17.3,29.47,North,350,6.0,11.0,78,0.00,,,0.00,WUHU216DAVISVP2,2013-02-21 07:49:00,
2013-02-21 02:52:00,23.1,17.3,29.47,North,359,6.0,11.0,78,0.00,,,0.00,WUHU216DAVISVP2,2013-02-21 07:52:00,
2013-02-21 02:54:00,23.1,17.3,29.47,North,11,8.0,11.0,78,0.00,,,0.00,WUHU216DAVISVP2,2013-02-21 07:54:00,
2013-02-21 02:55:00,23.1,17.3,29.47,NNE,23,6.0,11.0,78,0.00,,,0.00,WUHU216DAVISVP2,2013-02-21 07:55:00,
2013-02-21 02:57:00,23.1,17.3,29.47,North,4,6.0,11.0,78,0.00,,,0.00,WUHU216DAVISVP2,2013-02-21 07:57:00,
2013-02-21 02:59:00,23.1,17.3,29.47,NNW,347,5.0,11.0,78,0.00,,,0.00,WUHU216DAVISVP2,2013-02-21 07:59:00,
2013-02-21 03:00:00,23.2,17.4,29.47,NNW,348,2.0,11.0,78,0.00,,,0.00,WUHU216DAVISVP2,2013-02-21 08:00:00,
2013-02-21 03:02:00,23.1,17.3,29.47,North,354,5.0,11.0,78,0.00,,,0.00,WUHU216DAVISVP2,2013-02-21 08:02:00,
2013-02-21 03:05:00,23.1,17.3,29.46,North,4,5.0,10.0,78,0.00,,,0.00,WUHU216DAVISVP2,2013-02-21 08:05:00,
2013-02-21 03:07:00,23.1,17.3,29.46,North,359,6.0,10.0,78,0.00,,,0.00,WUHU216DAVISVP2,2013-02-21 08:07:00,
2013-02-21 03:10:00,23.2,17.4,29.46,North,359,6.0,9.0,78,0.00,,,0.00,WUHU216DAVISVP2,2013-02-21 08:10:00,
2013-02-21 03:12:00,23.3,17.7,29.46,NE,34,4.0,9.0,79,0.00,,,0.00,WUHU216DAVISVP2,2013-02-21 08:12:00,
2013-02-21 03:15:00,23.3,17.5,29.46,NE,48,10.0,10.0,78,0.00,,,0.00,WUHU216DAVISVP2,2013-02-21 08:15:00,
2013-02-21 03:17:00,23.3,17.5,29.46,NNE,21,5.0,10.0,78,0.00,,,0.00,WUHU216DAVISVP2,2013-02-21 08:17:00,
2013-02-21 03:20:00,23.4,17.6,29.46,NNE,24,6.0,10.0,78,0.00,,,0.00,WUHU216DAVISVP2,2013-02-21 08:20:00,
2013-02-21 03:23:00,23.4,17.6,29.46,North,354,6.0,10.0,78,0.00,,,0.00,WUHU216DAVISVP2,2013-02-21 08:23:00,
2013-02-21 03:25:00,23.4,17.6,29.46,NE,38,8.0,10.0,78,0.00,,,0.00,WUHU216DAVISVP2,2013-02-21 08:25:00,
2013-02-21 03:28:00,23.4,17.6,29.46,NE,41,11.0,11.0,78,0.00,,,0.00,WUHU216DAVISVP2,2013-02-21 08:28:00,
2013-02-21 03:30:00,23.4,17.6,29.46,NE,41,7.0,12.0,78,0.00,,,0.00,WUHU216DAVISVP2,2013-02-21 08:30:00,
2013-02-21 03:33:00,23.5,17.7,29.45,NNE,26,8.0,12.0,78,0.00,,,0.00,WUHU216DAVISVP2,2013-02-21 08:33:00,
2013-02-21 03:35:00,23.5,17.7,29.45,NE,54,6.0,12.0,78,0.00,,,0.00,WUHU216DAVISVP2,2013-02-21 08:35:00,
2013-02-21 03:38:00,23.5,17.6,29.46,NNE,31,6.0,15.0,78,0.00,,,0.00,WUHU216DAVISVP2,2013-02-21 08:38:00,
2013-02-21 03:40:00,23.5,17.6,29.46,NE,46,9.0,15.0,78,0.00,,,0.00,WUHU216DAVISVP2,2013-02-21 08:40:00,
2013-02-21 03:41:00,23.5,17.6,29.46,NNE,32,8.0,15.0,78,0.00,,,0.00,WUHU216DAVISVP2,2013-02-21 08:41:00,
2013-02-21 03:43:00,23.6,17.8,29.46,NNE,31,9.0,15.0,78,0.00,,,0.00,WUHU216DAVISVP2,2013-02-21 08:43:00,
2013-02-21 03:46:00,23.6,17.8,29.46,NE,39,6.0,15.0,78,0.00,,,0.00,WUHU216DAVISVP2,2013-02-21 08:46:00,
2013-02-21 03:48:00,23.6,17.5,29.46,NE,54,5.0,15.0,77,0.00,,,0.00,WUHU216DAVISVP2,2013-02-21 08:48:00,
2013-02-21 03:51:00,23.6,17.8,29.46,NE,36,2.0,15.0,78,0.00,,,0.00,WUHU216DAVISVP2,2013-02-21 08:51:00,
2013-02-21 03:54:00,23.6,17.8,29.45,NE,39,5.0,15.0,78,0.00,,,0.00,WUHU216DAVISVP2,2013-02-21 08:54:00,
2013-02-21 03:56:00,23.7,17.8,29.45,North,4,6.0,13.0,78,0.00,,,0.00,WUHU216DAVISVP2,2013-02-21 08:56:00,
2013-02-21 03:59:00,23.6,17.7,29.45,NE,48,7.0,10.0,78,0.00,,,0.00,WUHU216DAVISVP2,2013-02-21 08:59:00,
2013-02-21 04:01:00,23.6,17.7,29.46,NNW,348,4.0,10.0,78,0.00,,,0.00,WUHU216DAVISVP2,2013-02-21 09:01:00,
2013-02-21 04:02:00,23.6,17.7,29.46,NNW,348,5.0,10.0,78,0.00,,,0.00,WUHU216DAVISVP2,2013-02-21 09:02:00,
2013-02-21 04:04:00,23.7,17.8,29.46,North,354,5.0,9.0,78,0.00,,,0.00,WUHU216DAVISVP2,2013-02-21 09:04:00,
2013-02-21 04:06:00,23.7,17.8,29.46,North,359,5.0,9.0,78,0.00,,,0.00,WUHU216DAVISVP2,2013-02-21 09:06:00,
2013-02-21 04:07:00,23.7,17.9,29.46,North,359,3.0,9.0,78,0.00,,,0.00,WUHU216DAVISVP2,2013-02-21 09:07:00,
2013-02-21 04:09:00,23.7,17.9,29.46,North,359,7.0,9.0,78,0.00,,,0.00,WUHU216DAVISVP2,2013-02-21 09:09:00,
2013-02-21 04:11:00,23.7,17.9,29.46,NNE,15,7.0,9.0,78,0.00,,,0.00,WUHU216DAVISVP2,2013-02-21 09:11:00,
2013-02-21 04:12:00,23.7,17.9,29.46,North,8,10.0,10.0,78,0.00,,,0.00,WUHU216DAVISVP2,2013-02-21 09:12:00,
2013-02-21 04:14:00,23.8,18.0,29.46,NNE,26,8.0,12.0,78,0.00,,,0.00,WUHU216DAVISVP2,2013-02-21 09:14:00,
2013-02-21 04:16:00,23.9,18.1,29.46,NE,39,8.0,12.0,78,0.00,,,0.00,WUHU216DAVISVP2,2013-02-21 09:16:00,
2013-02-21 04:17:00,23.8,18.0,29.46,NNE,33,9.0,12.0,78,0.00,,,0.00,WUHU216DAVISVP2,2013-02-21 09:17:00,
2013-02-21 04:19:00,23.9,18.0,29.46,NNE,31,8.0,12.0,78,0.00,,,0.00,WUHU216DAVISVP2,2013-02-21 09:19:00,
2013-02-21 04:21:00,23.9,18.0,29.46,NE,43,8.0,12.0,78,0.00,,,0.00,WUHU216DAVISVP2,2013-02-21 09:21:00,
2013-02-21 04:22:00,23.9,18.0,29.46,NE,43,8.0,12.0,78,0.00,,,0.00,WUHU216DAVISVP2,2013-02-21 09:22:00,
2013-02-21 04:24:00,23.9,18.1,29.46,NE,34,5.0,12.0,78,0.00,,,0.00,WUHU216DAVISVP2,2013-02-21 09:24:00,
2013-02-21 04:26:00,24.0,18.1,29.45,NE,51,5.0,12.0,78,0.00,,,0.00,WUHU216DAVISVP2,2013-02-21 09:26:00,
2013-02-21 04:27:00,24.0,18.1,29.45,NE,51,5.0,12.0,78,0.00,,,0.00,WUHU216DAVISVP2,2013-02-21 09:27:00,
2013-02-21 04:29:00,24.0,18.1,29.45,NE,45,5.0,12.0,78,0.00,,,0.00,WUHU216DAVISVP2,2013-02-21 09:29:00,
2013-02-21 04:32:00,24.0,18.1,29.45,NNE,33,8.0,12.0,78,0.00,,,0.00,WUHU216DAVISVP2,2013-02-21 09:32:00,
2013-02-21 04:34:00,24.0,18.2,29.45,North,10,6.0,11.0,78,0.00,,,0.00,WUHU216DAVISVP2,2013-02-21 09:34:00,
2013-02-21 04:37:00,24.0,18.2,29.45,NNE,19,6.0,11.0,78,0.00,,,0.00,WUHU216DAVISVP2,2013-02-21 09:37:00,
2013-02-21 04:38:00,24.0,18.2,29.45,NE,38,7.0,11.0,78,0.00,,,0.00,WUHU216DAVISVP2,2013-02-21 09:38:00,
2013-02-21 04:40:00,24.1,18.2,29.45,NNE,28,8.0,11.0,78,0.00,,,0.00,WUHU216DAVISVP2,2013-02-21 09:40:00,
2013-02-21 04:42:00,24.1,18.2,29.45,NE,35,7.0,11.0,78,0.00,,,0.00,WUHU216DAVISVP2,2013-02-21 09:42:00,
2013-02-21 04:43:00,24.1,18.2,29.45,ENE,61,6.0,11.0,78,0.00,,,0.00,WUHU216DAVISVP2,2013-02-21 09:43:00,
2013-02-21 04:45:00,24.1,18.2,29.45,NE,37,9.0,11.0,78,0.00,,,0.00,WUHU216DAVISVP2,2013-02-21 09:45:00,
2013-02-21 04:47:00,24.1,18.2,29.45,NNE,33,5.0,11.0,78,0.00,,,0.00,WUHU216DAVISVP2,2013-02-21 09:47:00,
2013-02-21 04:48:00,24.1,18.2,29.45,NNE,31,8.0,11.0,78,0.00,,,0.00,WUHU216DAVISVP2,2013-02-21 09:48:00,
2013-02-21 04:50:00,24.1,18.2,29.45,NE,45,6.0,10.0,78,0.00,,,0.00,WUHU216DAVISVP2,2013-02-21 09:50:00,
2013-02-21 04:53:00,24.1,18.2,29.45,NE,40,7.0,10.0,78,0.00,,,0.00,WUHU216DAVISVP2,2013-02-21 09:53:00,
2013-02-21 04:55:00,24.1,18.2,29.45,ENE,67,5.0,10.0,78,0.00,,,0.00,WUHU216DAVISVP2,2013-02-21 09:55:00,
2013-02-21 04:58:00,24.2,18.3,29.45,NE,39,10.0,10.0,78,0.00,,,0.00,WUHU216DAVISVP2,2013-02-21 09:58:00,
2013-02-21 04:59:00,24.2,18.3,29.45,NNE,12,8.0,10.0,78,0.00,,,0.00,WUHU216DAVISVP2,2013-02-21 09:59:00,
2013-02-21 05:00:00,24.2,18.3,29.45,NE,40,6.0,11.0,78,0.00,,,0.00,WUHU216DAVISVP2,2013-02-21 10:00:00,
2013-02-21 05:03:00,24.2,18.3,29.45,NE,54,4.0,11.0,78,0.00,,,0.00,WUHU216DAVISVP2,2013-02-21 10:03:00,
2013-02-21 05:04:00,24.2,18.3,29.45,ENE,58,6.0,11.0,78,0.00,,,0.00,WUHU216DAVISVP2,2013-02-21 10:04:00,
2013-02-21 05:06:00,24.2,18.3,29.45,East,84,6.0,11.0,78,0.00,,,0.00,WUHU216DAVISVP2,2013-02-21 10:06:00,
2013-02-21 05:08:00,24.3,18.4,29.45,NE,44,5.0,12.0,78,0.00,,,0.00,WUHU216DAVISVP2,2013-02-21 10:08:00,
2013-02-21 05:10:00,24.3,18.4,29.45,NE,37,8.0,12.0,78,0.00,,,0.00,WUHU216DAVISVP2,2013-02-21 10:10:00,
2013-02-21 05:11:00,24.3,18.4,29.45,NE,35,7.0,12.0,78,0.00,,,0.00,WUHU216DAVISVP2,2013-02-21 10:11:00,
2013-02-21 05:14:00,24.3,18.4,29.45,NE,37,5.0,12.0,78,0.00,,,0.00,WUHU216DAVISVP2,2013-02-21 10:14:00,
2013-02-21 05:15:00,24.3,18.4,29.46,NE,37,6.0,12.0,78,0.00,,,0.00,WUHU216DAVISVP2,2013-02-21 10:15:00,
2013-02-21 05:16:00,24.3,18.4,29.46,NE,45,5.0,12.0,78,0.00,,,0.00,WUHU216DAVISVP2,2013-02-21 10:16:00,
2013-02-21 05:19:00,24.3,18.4,29.45,NNE,29,6.0,12.0,78,0.00,,,0.00,WUHU216DAVISVP2,2013-02-21 10:19:00,
2013-02-21 05:20:00,24.4,18.5,29.45,NE,35,5.0,12.0,78,0.00,,,0.00,WUHU216DAVISVP2,2013-02-21 10:20:00,
2013-02-21 05:21:00,24.4,18.5,29.45,NE,36,5.0,12.0,78,0.00,,,0.00,WUHU216DAVISVP2,2013-02-21 10:21:00,
2013-02-21 05:24:00,24.4,18.5,29.45,NNE,14,6.0,12.0,78,0.00,,,0.00,WUHU216DAVISVP2,2013-02-21 10:24:00,
2013-02-21 05:26:00,24.4,18.5,29.46,NE,36,6.0,10.0,78,0.00,,,0.00,WUHU216DAVISVP2,2013-02-21 10:26:00,
2013-02-21 05:29:00,24.4,18.5,29.46,NE,35,6.0,10.0,78,0.00,,,0.00,WUHU216DAVISVP2,2013-02-21 10:29:00,
2013-02-21 05:31:00,24.4,18.5,29.46,NE,41,10.0,11.0,78,0.00,,,0.00,WUHU216DAVISVP2,2013-02-21 10:31:00,
2013-02-21 05:34:00,24.4,18.5,29.46,NE,37,8.0,12.0,78,0.00,,,0.00,WUHU216DAVISVP2,2013-02-21 10:34:00,
2013-02-21 05:36:00,24.4,18.5,29.46,NE,51,11.0,12.0,78,0.00,,,0.00,WUHU216DAVISVP2,2013-02-21 10:36:00,
2013-02-21 05:39:00,24.4,18.5,29.46,NNE,29,10.0,12.0,78,0.00,,,0.00,WUHU216DAVISVP2,2013-02-21 10:39:00,
2013-02-21 05:41:00,24.4,18.5,29.46,North,8,12.0,13.0,78,0.00,,,0.00,WUHU216DAVISVP2,2013-02-21 10:41:00,
2013-02-21 05:44:00,24.4,18.5,29.47,NNE,18,11.0,14.0,78,0.00,,,0.00,WUHU216DAVISVP2,2013-02-21 10:44:00,
2013-02-21 05:46:00,24.4,18.5,29.47,NE,37,9.0,14.0,78,0.00,,,0.00,WUHU216DAVISVP2,2013-02-21 10:46:00,
2013-02-21 05:49:00,24.5,18.6,29.46,NNE,27,9.0,14.0,78,0.00,,,0.00,WUHU216DAVISVP2,2013-02-21 10:49:00,
2013-02-21 05:51:00,24.5,18.6,29.46,NNE,21,7.0,14.0,78,0.00,,,0.00,WUHU216DAVISVP2,2013-02-21 10:51:00,
2013-02-21 05:54:00,24.4,18.5,29.46,NNE,28,8.0,14.0,78,0.00,,,0.00,WUHU216DAVISVP2,2013-02-21 10:54:00,
2013-02-21 05:56:00,24.5,18.6,29.46,NE,37,14.0,14.0,78,0.00,,,0.00,WUHU216DAVISVP2,2013-02-21 10:56:00,
2013-02-21 05:59:00,24.4,18.5,29.47,NE,39,10.0,14.0,78,0.00,,,0.00,WUHU216DAVISVP2,2013-02-21 10:59:00,
2013-02-21 06:00:00,24.4,18.5,29.47,NE,37,11.0,14.0,78,0.00,,,0.00,WUHU216DAVISVP2,2013-02-21 11:00:00,
2013-02-21 06:01:00,24.4,18.5,29.46,NNE,33,12.0,14.0,78,0.00,,,0.00,WUHU216DAVISVP2,2013-02-21 11:01:00,
2013-02-21 06:05:00,24.4,18.5,29.46,NNE,27,8.0,14.0,78,0.00,,,0.00,WUHU216DAVISVP2,2013-02-21 11:05:00,
2013-02-21 06:06:00,24.4,18.5,29.46,NNE,20,7.0,14.0,78,0.00,,,0.00,WUHU216DAVISVP2,2013-02-21 11:06:00,
2013-02-21 06:10:00,24.4,18.8,29.47,North,11,10.0,14.0,79,0.00,,,0.00,WUHU216DAVISVP2,2013-02-21 11:10:00,
2013-02-21 06:11:00,24.4,18.8,29.47,NNE,14,9.0,14.0,79,0.00,,,0.00,WUHU216DAVISVP2,2013-02-21 11:11:00,
2013-02-21 06:12:00,24.5,18.9,29.47,North,354,7.0,14.0,79,0.00,,,0.00,WUHU216DAVISVP2,2013-02-21 11:12:00,
2013-02-21 06:15:00,24.4,18.5,29.47,NNE,30,6.0,14.0,78,0.00,,,0.00,WUHU216DAVISVP2,2013-02-21 11:15:00,
2013-02-21 06:17:00,24.4,18.8,29.47,NNE,32,12.0,14.0,79,0.00,,,0.00,WUHU216DAVISVP2,2013-02-21 11:17:00,
2013-02-21 06:20:00,24.4,18.8,29.47,NE,35,9.0,14.0,79,0.00,,,0.00,WUHU216DAVISVP2,2013-02-21 11:20:00,
2013-02-21 06:22:00,24.4,18.8,29.47,NE,34,10.0,13.0,79,0.00,,,0.00,WUHU216DAVISVP2,2013-02-21 11:22:00,
2013-02-21 06:25:00,24.4,18.8,29.47,ENE,61,6.0,13.0,79,0.00,,,0.00,WUHU216DAVISVP2,2013-02-21 11:25:00,
2013-02-21 06:27:00,24.3,18.7,29.47,NNE,21,8.0,14.0,79,0.00,,,0.00,WUHU216DAVISVP2,2013-02-21 11:27:00,
2013-02-21 06:30:00,24.3,18.7,29.48,NNE,25,8.0,14.0,79,0.00,,,0.00,WUHU216DAVISVP2,2013-02-21 11:30:00,
2013-02-21 06:32:00,24.2,18.6,29.48,NNE,21,9.0,14.0,79,0.00,,,0.00,WUHU216DAVISVP2,2013-02-21 11:32:00,
2013-02-21 06:35:00,24.1,18.5,29.48,NE,55,8.0,19.0,79,0.00,,,0.00,WUHU216DAVISVP2,2013-02-21 11:35:00,
2013-02-21 06:36:00,24.2,18.6,29.48,NE,45,7.0,19.0,79,0.00,,,0.00,WUHU216DAVISVP2,2013-02-21 11:36:00,
2013-02-21 06:37:00,24.1,18.8,29.48,NE,35,8.0,19.0,80,0.00,,,0.00,WUHU216DAVISVP2,2013-02-21 11:37:00,
2013-02-21 06:38:00,24.1,18.8,29.47,ENE,61,3.0,19.0,80,0.00,,,0.00,WUHU216DAVISVP2,2013-02-21 11:38:00,
2013-02-21 06:40:00,24.1,18.8,29.47,NE,34,9.0,19.0,80,0.00,,,0.00,WUHU216DAVISVP2,2013-02-21 11:40:00,
2013-02-21 06:41:00,24.1,18.8,29.47,NE,47,10.0,19.0,80,0.00,,,0.00,WUHU216DAVISVP2,2013-02-21 11:41:00,
2013-02-21 06:42:00,24.1,18.8,29.47,North,10,10.0,19.0,80,0.00,,,0.00,WUHU216DAVISVP2,2013-02-21 11:42:00,
2013-02-21 06:43:00,24.1,18.8,29.48,NNE,25,9.0,19.0,80,0.00,,,0.00,WUHU216DAVISVP2,2013-02-21 11:43:00,
2013-02-21 06:45:00,24.1,18.8,29.48,NNE,13,11.0,19.0,80,0.00,,,0.00,WUHU216DAVISVP2,2013-02-21 11:45:00,
2013-02-21 06:46:00,24.1,18.8,29.48,North,4,9.0,19.0,80,0.00,,,0.00,WUHU216DAVISVP2,2013-02-21 11:46:00,
2013-02-21 06:47:00,24.0,18.7,29.48,North,10,9.0,19.0,80,0.00,,,0.00,WUHU216DAVISVP2,2013-02-21 11:47:00,
2013-02-21 06:49:00,24.0,18.7,29.48,NNE,25,9.0,19.0,80,0.00,,,0.00,WUHU216DAVISVP2,2013-02-21 11:49:00,
2013-02-21 06:51:00,24.0,18.7,29.48,NNE,24,8.0,19.0,80,0.00,,,0.00,WUHU216DAVISVP2,2013-02-21 11:51:00,
2013-02-21 06:52:00,24.0,18.7,29.49,NNE,19,8.0,16.0,80,0.00,,,0.00,WUHU216DAVISVP2,2013-02-21 11:52:00,
2013-02-21 06:54:00,24.0,18.7,29.49,NNE,29,8.0,16.0,80,0.00,,,0.00,WUHU216DAVISVP2,2013-02-21 11:54:00,
2013-02-21 06:56:00,24.0,18.7,29.50,NE,39,6.0,16.0,80,0.00,,,0.00,WUHU216DAVISVP2,2013-02-21 11:56:00,
2013-02-21 06:57:00,24.0,18.7,29.50,North,9,6.0,16.0,80,0.00,,,0.00,WUHU216DAVISVP2,2013-02-21 11:57:00,
2013-02-21 06:59:00,24.0,18.7,29.50,NNE,33,7.0,16.0,80,0.00,,,0.00,WUHU216DAVISVP2,2013-02-21 11:59:00,
2013-02-21 07:01:00,24.0,18.7,29.50,North,354,6.0,16.0,80,0.00,,,0.00,WUHU216DAVISVP2,2013-02-21 12:01:00,
2013-02-21 07:02:00,24.0,18.7,29.50,North,4,7.0,16.0,80,0.00,,,0.00,WUHU216DAVISVP2,2013-02-21 12:02:00,
2013-02-21 07:04:00,24.0,18.7,29.51,NNE,21,6.0,12.0,80,0.00,,,0.00,WUHU216DAVISVP2,2013-02-21 12:04:00,
2013-02-21 07:06:00,24.1,18.8,29.51,NNE,23,5.0,11.0,80,0.00,,,0.00,WUHU216DAVISVP2,2013-02-21 12:06:00,
2013-02-21 07:07:00,24.1,19.1,29.50,North,354,6.0,11.0,81,0.00,,,0.00,WUHU216DAVISVP2,2013-02-21 12:07:00,
2013-02-21 07:09:00,24.1,18.8,29.50,NE,43,6.0,11.0,80,0.00,,,0.00,WUHU216DAVISVP2,2013-02-21 12:09:00,
2013-02-21 07:11:00,24.1,18.8,29.50,NE,40,7.0,10.0,80,0.00,,,0.00,WUHU216DAVISVP2,2013-02-21 12:11:00,
2013-02-21 07:13:00,24.0,18.7,29.50,NE,50,6.0,10.0,80,0.00,,,0.00,WUHU216DAVISVP2,2013-02-21 12:13:00,
2013-02-21 07:14:00,24.0,19.0,29.49,NE,56,7.0,10.0,81,0.00,,,0.00,WUHU216DAVISVP2,2013-02-21 12:14:00,
2013-02-21 07:16:00,24.0,19.0,29.48,NE,54,7.0,10.0,81,0.00,,,0.00,WUHU216DAVISVP2,2013-02-21 12:16:00,
2013-02-21 07:18:00,24.0,19.0,29.47,NE,49,7.0,11.0,81,0.00,,,0.00,WUHU216DAVISVP2,2013-02-21 12:18:00,
2013-02-21 07:19:00,24.0,19.0,29.47,NE,38,9.0,11.0,81,0.00,,,0.00,WUHU216DAVISVP2,2013-02-21 12:19:00,
2013-02-21 07:21:00,23.9,18.9,29.47,NE,35,12.0,12.0,81,0.00,,,0.00,WUHU216DAVISVP2,2013-02-21 12:21:00,
2013-02-21 07:22:00,23.9,18.9,29.47,NE,53,12.0,13.0,81,0.00,,,0.00,WUHU216DAVISVP2,2013-02-21 12:22:00,
2013-02-21 07:23:00,23.9,18.9,29.47,NE,55,5.0,13.0,81,0.00,,,0.00,WUHU216DAVISVP2,2013-02-21 12:23:00,
2013-02-21 07:24:00,23.9,18.9,29.47,ENE,58,6.0,13.0,81,0.00,,,0.00,WUHU216DAVISVP2,2013-02-21 12:24:00,
2013-02-21 07:26:00,23.8,18.8,29.47,ENE,65,8.0,13.0,81,0.00,,,0.00,WUHU216DAVISVP2,2013-02-21 12:26:00,
2013-02-21 07:27:00,23.8,18.8,29.47,ENE,60,10.0,13.0,81,0.00,,,0.00,WUHU216DAVISVP2,2013-02-21 12:27:00,
2013-02-21 07:28:00,23.7,18.7,29.47,NE,51,9.0,13.0,81,0.00,,,0.00,WUHU216DAVISVP2,2013-02-21 12:28:00,
2013-02-21 07:29:00,23.7,18.7,29.46,ENE,64,8.0,13.0,81,0.00,,,0.00,WUHU216DAVISVP2,2013-02-21 12:29:00,
2013-02-21 07:31:00,23.7,18.7,29.46,ENE,64,8.0,13.0,81,0.00,,,0.00,WUHU216DAVISVP2,2013-02-21 12:31:00,
2013-02-21 07:32:00,23.6,18.6,29.46,ENE,57,7.0,13.0,81,0.00,,,0.00,WUHU216DAVISVP2,2013-02-21 12:32:00,
2013-02-21 07:33:00,23.6,18.6,29.47,NE,51,5.0,13.0,81,0.00,,,0.00,WUHU216DAVISVP2,2013-02-21 12:33:00,
2013-02-21 07:35:00,23.6,18.6,29.47,ENE,57,4.0,13.0,81,0.00,,,0.00,WUHU216DAVISVP2,2013-02-21 12:35:00,
2013-02-21 07:37:00,23.6,18.6,29.47,ENE,58,9.0,13.0,81,0.00,,,0.00,WUHU216DAVISVP2,2013-02-21 12:37:00,
2013-02-21 07:38:00,23.6,18.6,29.47,NNE,27,5.0,13.0,81,0.00,,,0.00,WUHU216DAVISVP2,2013-02-21 12:38:00,
2013-02-21 07:40:00,23.5,18.5,29.47,ENE,57,7.0,13.0,81,0.00,,,0.00,WUHU216DAVISVP2,2013-02-21 12:40:00,
2013-02-21 07:42:00,23.6,18.6,29.48,NNE,17,5.0,13.0,81,0.00,,,0.00,WUHU216DAVISVP2,2013-02-21 12:42:00,
2013-02-21 07:44:00,23.5,18.5,29.47,NNE,30,7.0,12.0,81,0.00,,,0.00,WUHU216DAVISVP2,2013-02-21 12:44:00,
2013-02-21 07:45:00,23.6,18.6,29.47,NNE,22,11.0,12.0,81,0.00,,,0.00,WUHU216DAVISVP2,2013-02-21 12:45:00,
2013-02-21 07:47:00,23.6,18.6,29.48,NE,45,7.0,12.0,81,0.00,,,0.00,WUHU216DAVISVP2,2013-02-21 12:47:00,
2013-02-21 07:49:00,23.6,18.6,29.47,NE,50,7.0,12.0,81,0.00,,,0.00,WUHU216DAVISVP2,2013-02-21 12:49:00,
2013-02-21 07:50:00,23.6,18.6,29.47,NNE,27,8.0,12.0,81,0.00,,,0.00,WUHU216DAVISVP2,2013-02-21 12:50:00,
2013-02-21 07:52:00,23.6,18.6,29.47,NE,42,7.0,12.0,81,0.00,,,0.00,WUHU216DAVISVP2,2013-02-21 12:52:00,
2013-02-21 07:54:00,23.6,18.6,29.47,NE,45,4.0,12.0,81,0.00,,,0.00,WUHU216DAVISVP2,2013-02-21 12:54:00,
2013-02-21 07:55:00,23.6,18.6,29.47,NNE,22,8.0,11.0,81,0.00,,,0.00,WUHU216DAVISVP2,2013-02-21 12:55:00,
2013-02-21 07:57:00,23.6,18.6,29.47,NE,34,5.0,11.0,81,0.00,,,0.00,WUHU216DAVISVP2,2013-02-21 12:57:00,
2013-02-21 07:58:00,23.6,18.6,29.47,NE,38,8.0,11.0,81,0.00,,,0.00,WUHU216DAVISVP2,2013-02-21 12:58:00,
2013-02-21 07:59:00,23.6,18.6,29.48,NE,56,7.0,11.0,81,0.00,,,0.00,WUHU216DAVISVP2,2013-02-21 12:59:00,
2013-02-21 08:00:00,23.6,18.6,29.48,NNE,24,5.0,11.0,81,0.00,,,0.00,WUHU216DAVISVP2,2013-02-21 13:00:00,
2013-02-21 08:02:00,23.6,18.6,29.48,NE,54,5.0,11.0,81,0.00,,,0.00,WUHU216DAVISVP2,2013-02-21 13:02:00,
2013-02-21 08:03:00,23.6,18.6,29.48,NE,47,5.0,11.0,81,0.00,,,0.00,WUHU216DAVISVP2,2013-02-21 13:03:00,
2013-02-21 08:04:00,23.7,18.7,29.48,NE,43,7.0,10.0,81,0.00,,,0.00,WUHU216DAVISVP2,2013-02-21 13:04:00,
2013-02-21 08:05:00,23.7,18.7,29.49,NE,54,1.0,10.0,81,0.00,,,0.00,WUHU216DAVISVP2,2013-02-21 13:05:00,
2013-02-21 08:07:00,23.7,19.0,29.49,NE,45,3.0,10.0,82,0.00,,,0.00,WUHU216DAVISVP2,2013-02-21 13:07:00,
2013-02-21 08:08:00,23.7,19.0,29.49,ENE,64,4.0,10.0,82,0.00,,,0.00,WUHU216DAVISVP2,2013-02-21 13:08:00,
2013-02-21 08:09:00,23.7,18.7,29.49,NE,39,7.0,10.0,81,0.00,,,0.00,WUHU216DAVISVP2,2013-02-21 13:09:00,
2013-02-21 08:10:00,23.7,18.7,29.49,ENE,67,9.0,10.0,81,0.00,,,0.00,WUHU216DAVISVP2,2013-02-21 13:10:00,
2013-02-21 08:12:00,23.6,18.6,29.49,NE,48,5.0,12.0,81,0.00,,,0.00,WUHU216DAVISVP2,2013-02-21 13:12:00,
2013-02-21 08:13:00,23.6,18.6,29.49,NE,43,9.0,12.0,81,0.00,,,0.00,WUHU216DAVISVP2,2013-02-21 13:13:00,
2013-02-21 08:14:00,23.5,18.5,29.49,ENE,60,3.0,12.0,81,0.00,,,0.00,WUHU216DAVISVP2,2013-02-21 13:14:00,
2013-02-21 08:16:00,23.5,18.2,29.49,NE,53,5.0,12.0,80,0.00,,,0.00,WUHU216DAVISVP2,2013-02-21 13:16:00,
2013-02-21 08:18:00,23.4,18.1,29.49,ENE,66,6.0,12.0,80,0.00,,,0.00,WUHU216DAVISVP2,2013-02-21 13:18:00,
2013-02-21 08:20:00,23.4,18.1,29.49,ENE,59,4.0,12.0,80,0.00,,,0.00,WUHU216DAVISVP2,2013-02-21 13:20:00,
2013-02-21 08:21:00,23.4,18.4,29.49,ENE,59,7.0,12.0,81,0.00,,,0.00,WUHU216DAVISVP2,2013-02-21 13:21:00,
2013-02-21 08:23:00,23.4,18.4,29.49,NE,41,7.0,12.0,81,0.00,,,0.00,WUHU216DAVISVP2,2013-02-21 13:23:00,
2013-02-21 08:25:00,23.4,18.4,29.49,NNE,33,5.0,12.0,81,0.00,,,0.00,WUHU216DAVISVP2,2013-02-21 13:25:00,
2013-02-21 08:26:00,23.4,18.1,29.49,NE,41,6.0,12.0,80,0.00,,,0.00,WUHU216DAVISVP2,2013-02-21 13:26:00,
2013-02-21 08:28:00,23.4,18.4,29.49,NE,41,1.0,12.0,81,0.00,,,0.00,WUHU216DAVISVP2,2013-02-21 13:28:00,
2013-02-21 08:30:00,23.4,18.1,29.50,NE,41,4.0,12.0,80,0.00,,,0.00,WUHU216DAVISVP2,2013-02-21 13:30:00,
2013-02-21 08:31:00,23.4,18.4,29.50,NE,37,4.0,10.0,81,0.00,,,0.00,WUHU216DAVISVP2,2013-02-21 13:31:00,
2013-02-21 08:33:00,23.4,18.4,29.50,NE,47,5.0,8.0,81,0.00,,,0.00,WUHU216DAVISVP2,2013-02-21 13:33:00,
2013-02-21 08:35:00,23.4,18.4,29.49,NE,48,4.0,8.0,81,0.00,,,0.00,WUHU216DAVISVP2,2013-02-21 13:35:00,
2013-02-21 08:36:00,23.4,18.4,29.50,NNE,27,7.0,8.0,81,0.00,,,0.00,WUHU216DAVISVP2,2013-02-21 13:36:00,
2013-02-21 08:38:00,23.5,18.5,29.50,NE,35,7.0,8.0,81,0.00,,,0.00,WUHU216DAVISVP2,2013-02-21 13:38:00,
2013-02-21 08:40:00,23.5,18.5,29.50,NE,45,5.0,8.0,81,0.00,,,0.00,WUHU216DAVISVP2,2013-02-21 13:40:00,
2013-02-21 08:41:00,23.5,18.5,29.50,ENE,64,5.0,8.0,81,0.00,,,0.00,WUHU216DAVISVP2,2013-02-21 13:41:00,
2013-02-21 08:43:00,23.5,18.5,29.50,ENE,77,4.0,7.0,81,0.00,,,0.00,WUHU216DAVISVP2,2013-02-21 13:43:00,
2013-02-21 08:45:00,23.5,18.5,29.50,East,81,4.0,8.0,81,0.00,,,0.00,WUHU216DAVISVP2,2013-02-21 13:45:00,
2013-02-21 08:47:00,23.4,18.4,29.50,ENE,69,7.0,9.0,81,0.00,,,0.00,WUHU216DAVISVP2,2013-02-21 13:47:00,
2013-02-21 08:48:00,23.4,18.4,29.50,ENE,70,7.0,9.0,81,0.00,,,0.00,WUHU216DAVISVP2,2013-02-21 13:48:00,
2013-02-21 08:50:00,23.3,18.3,29.49,ENE,71,6.0,9.0,81,0.00,,,0.00,WUHU216DAVISVP2,2013-02-21 13:50:00,
2013-02-21 08:52:00,23.3,18.3,29.49,East,83,4.0,9.0,81,0.00,,,0.00,WUHU216DAVISVP2,2013-02-21 13:52:00,
2013-02-21 08:53:00,23.3,18.3,29.49,East,93,4.0,9.0,81,0.00,,,0.00,WUHU216DAVISVP2,2013-02-21 13:53:00,
2013-02-21 08:54:00,23.3,18.3,29.49,East,93,2.0,9.0,81,0.00,,,0.00,WUHU216DAVISVP2,2013-02-21 13:54:00,
2013-02-21 08:55:00,23.3,18.3,29.49,ENE,75,7.0,9.0,81,0.00,,,0.00,WUHU216DAVISVP2,2013-02-21 13:55:00,
2013-02-21 08:57:00,23.2,18.2,29.49,ENE,78,5.0,9.0,81,0.00,,,0.00,WUHU216DAVISVP2,2013-02-21 13:57:00,
2013-02-21 08:58:00,23.2,18.2,29.49,NE,43,6.0,9.0,81,0.00,,,0.00,WUHU216DAVISVP2,2013-02-21 13:58:00,
2013-02-21 08:59:00,23.2,18.2,29.49,East,81,4.0,9.0,81,0.00,,,0.00,WUHU216DAVISVP2,2013-02-21 13:59:00,
2013-02-21 09:00:00,23.2,18.2,29.49,ENE,66,5.0,9.0,81,0.00,,,0.00,WUHU216DAVISVP2,2013-02-21 14:00:00,
2013-02-21 09:02:00,23.2,18.2,29.48,East,91,6.0,10.0,81,0.00,,,0.00,WUHU216DAVISVP2,2013-02-21 14:02:00,
2013-02-21 09:04:00,23.1,18.1,29.48,East,94,7.0,10.0,81,0.00,,,0.00,WUHU216DAVISVP2,2013-02-21 14:04:00,
2013-02-21 09:05:00,23.1,18.1,29.48,NE,52,5.0,10.0,81,0.00,,,0.00,WUHU216DAVISVP2,2013-02-21 14:05:00,
2013-02-21 09:07:00,23.1,18.1,29.48,East,100,5.0,10.0,81,0.00,,,0.00,WUHU216DAVISVP2,2013-02-21 14:07:00,
2013-02-21 09:09:00,23.0,18.0,29.48,ESE,111,5.0,10.0,81,0.00,,,0.00,WUHU216DAVISVP2,2013-02-21 14:09:00,
2013-02-21 09:10:00,23.1,18.1,29.48,ENE,71,6.0,10.0,81,0.00,,,0.00,WUHU216DAVISVP2,2013-02-21 14:10:00,
2013-02-21 09:14:00,23.1,18.1,29.48,ENE,77,6.0,10.0,81,0.00,,,0.00,WUHU216DAVISVP2,2013-02-21 14:14:00,
2013-02-21 09:15:00,23.1,18.1,29.48,ENE,61,7.0,10.0,81,0.00,,,0.00,WUHU216DAVISVP2,2013-02-21 14:15:00,
2013-02-21 09:20:00,23.2,18.2,29.49,NE,35,7.0,9.0,81,0.00,,,0.00,WUHU216DAVISVP2,2013-02-21 14:20:00,
2013-02-21 09:27:00,23.2,17.9,29.50,ENE,60,5.0,9.0,80,0.00,,,0.00,WUHU216DAVISVP2,2013-02-21 14:27:00,
2013-02-21 09:33:00,23.2,18.2,29.50,NE,44,5.0,8.0,81,0.00,,,0.00,WUHU216DAVISVP2,2013-02-21 14:33:00,
2013-02-21 09:39:00,23.3,18.0,29.49,East,96,5.0,9.0,80,0.00,,,0.00,WUHU216DAVISVP2,2013-02-21 14:39:00,
2013-02-21 09:40:00,23.3,18.0,29.49,East,96,5.0,9.0,80,0.00,,,0.00,WUHU216DAVISVP2,2013-02-21 14:40:00,
2013-02-21 09:46:00,23.2,17.9,29.49,ENE,58,6.0,9.0,80,0.00,,,0.00,WUHU216DAVISVP2,2013-02-21 14:46:00,
2013-02-21 09:52:00,23.1,17.6,29.49,ENE,69,5.0,9.0,79,0.00,,,0.00,WUHU216DAVISVP2,2013-02-21 14:52:00,
2013-02-21 09:53:00,23.1,17.6,29.49,ENE,69,5.0,9.0,79,0.00,,,0.00,WUHU216DAVISVP2,2013-02-21 14:53:00,
2013-02-21 09:57:00,23.2,17.9,29.49,ESE,120,5.0,9.0,80,0.00,,,0.00,WUHU216DAVISVP2,2013-02-21 14:57:00,
2013-02-21 09:58:00,23.2,17.9,29.49,East,100,8.0,9.0,80,0.00,,,0.00,WUHU216DAVISVP2,2013-02-21 14:58:00,
2013-02-21 10:02:00,23.1,17.8,29.49,ESE,102,7.0,10.0,80,0.00,,,0.00,WUHU216DAVISVP2,2013-02-21 15:02:00,
2013-02-21 10:03:00,23.0,17.8,29.49,East,96,7.0,10.0,80,0.00,,,0.00,WUHU216DAVISVP2,2013-02-21 15:03:00,
2013-02-21 10:07:00,23.0,17.8,29.49,ESE,118,4.0,10.0,80,0.00,,,0.00,WUHU216DAVISVP2,2013-02-21 15:07:00,
2013-02-21 10:08:00,23.0,17.8,29.49,ESE,112,7.0,10.0,80,0.00,,,0.00,WUHU216DAVISVP2,2013-02-21 15:08:00,
2013-02-21 10:12:00,23.0,17.8,29.48,ESE,112,5.0,10.0,80,0.00,,,0.00,WUHU216DAVISVP2,2013-02-21 15:12:00,
2013-02-21 10:13:00,23.1,17.8,29.48,ESE,110,8.0,10.0,80,0.00,,,0.00,WUHU216DAVISVP2,2013-02-21 15:13:00,
2013-02-21 10:18:00,23.1,17.8,29.48,ESE,120,9.0,11.0,80,0.00,,,0.00,WUHU216DAVISVP2,2013-02-21 15:18:00,
2013-02-21 10:19:00,23.0,19.4,29.47,ESE,109,9.0,12.0,86,0.00,,,0.00,WUHU216DAVISVP2,2013-02-21 15:19:00,
2013-02-21 10:23:00,22.9,17.7,29.47,ESE,106,9.0,12.0,80,0.00,,,0.00,WUHU216DAVISVP2,2013-02-21 15:23:00,
2013-02-21 10:24:00,22.8,17.6,29.47,ESE,111,9.0,12.0,80,0.00,,,0.00,WUHU216DAVISVP2,2013-02-21 15:24:00,
2013-02-21 10:28:00,22.8,17.6,29.47,ESE,110,10.0,12.0,80,0.00,,,0.00,WUHU216DAVISVP2,2013-02-21 15:28:00,
2013-02-21 10:29:00,22.9,17.7,29.48,ENE,65,7.0,12.0,80,0.00,,,0.00,WUHU216DAVISVP2,2013-02-21 15:29:00,
2013-02-21 10:33:00,23.0,17.8,29.47,ESE,111,10.0,12.0,80,0.00,,,0.00,WUHU216DAVISVP2,2013-02-21 15:33:00,
2013-02-21 10:34:00,23.0,17.5,29.48,SE,141,7.0,13.0,79,0.00,,,0.00,WUHU216DAVISVP2,2013-02-21 15:34:00,
2013-02-21 10:35:00,23.0,17.5,29.48,SE,126,3.0,13.0,79,0.00,,,0.00,WUHU216DAVISVP2,2013-02-21 15:35:00,
2013-02-21 10:38:00,23.1,17.6,29.48,East,90,6.0,13.0,79,0.00,,,0.00,WUHU216DAVISVP2,2013-02-21 15:38:00,
2013-02-21 10:39:00,23.1,17.6,29.48,East,87,6.0,13.0,79,0.00,,,0.00,WUHU216DAVISVP2,2013-02-21 15:39:00,
2013-02-21 10:40:00,23.1,17.6,29.47,ESE,114,9.0,13.0,79,0.00,,,0.00,WUHU216DAVISVP2,2013-02-21 15:40:00,
2013-02-21 10:43:00,23.2,17.7,29.47,ENE,69,7.0,13.0,79,0.00,,,0.00,WUHU216DAVISVP2,2013-02-21 15:43:00,
2013-02-21 10:44:00,23.2,17.4,29.47,ESE,102,10.0,13.0,78,0.00,,,0.00,WUHU216DAVISVP2,2013-02-21 15:44:00,
2013-02-21 10:45:00,23.1,17.3,29.47,East,79,6.0,13.0,78,0.00,,,0.00,WUHU216DAVISVP2,2013-02-21 15:45:00,
2013-02-21 10:49:00,23.0,17.2,29.48,East,84,9.0,14.0,78,0.00,,,0.00,WUHU216DAVISVP2,2013-02-21 15:49:00,
2013-02-21 10:50:00,22.9,17.1,29.48,East,99,7.0,14.0,78,0.00,,,0.00,WUHU216DAVISVP2,2013-02-21 15:50:00,
2013-02-21 10:54:00,22.9,17.1,29.49,ESE,113,6.0,14.0,78,0.00,,,0.00,WUHU216DAVISVP2,2013-02-21 15:54:00,
2013-02-21 10:55:00,22.9,17.1,29.49,ESE,116,1.0,14.0,78,0.00,,,0.00,WUHU216DAVISVP2,2013-02-21 15:55:00,
2013-02-21 10:59:00,23.0,17.5,29.49,ENE,62,7.0,14.0,79,0.00,,,0.00,WUHU216DAVISVP2,2013-02-21 15:59:00,
2013-02-21 11:00:00,23.2,17.7,29.49,ENE,73,5.0,14.0,79,0.00,,,0.00,WUHU216DAVISVP2,2013-02-21 16:00:00,
2013-02-21 11:04:00,23.3,17.5,29.49,ESE,103,4.0,14.0,78,0.00,,,0.00,WUHU216DAVISVP2,2013-02-21 16:04:00,
2013-02-21 11:05:00,23.3,17.5,29.49,ESE,103,2.0,14.0,78,0.00,,,0.00,WUHU216DAVISVP2,2013-02-21 16:05:00,
2013-02-21 11:09:00,23.4,17.6,29.49,ESE,109,8.0,11.0,78,0.00,,,0.00,WUHU216DAVISVP2,2013-02-21 16:09:00,
2013-02-21 11:10:00,23.4,17.6,29.49,ESE,103,8.0,11.0,78,0.00,,,0.00,WUHU216DAVISVP2,2013-02-21 16:10:00,
2013-02-21 11:11:00,23.4,17.6,29.49,ESE,115,2.0,11.0,78,0.00,,,0.00,WUHU216DAVISVP2,2013-02-21 16:11:00,
2013-02-21 11:14:00,23.3,17.5,29.50,SE,139,2.0,11.0,78,0.00,,,0.00,WUHU216DAVISVP2,2013-02-21 16:14:00,
2013-02-21 11:15:00,23.4,17.6,29.50,SSE,153,6.0,11.0,78,0.00,,,0.00,WUHU216DAVISVP2,2013-02-21 16:15:00,
2013-02-21 11:16:00,23.4,17.6,29.49,South,173,7.0,11.0,78,0.00,,,0.00,WUHU216DAVISVP2,2013-02-21 16:16:00,
2013-02-21 11:20:00,23.4,17.6,29.49,ESE,108,0.0,11.0,78,0.00,,,0.00,WUHU216DAVISVP2,2013-02-21 16:20:00,
2013-02-21 11:21:00,23.5,17.6,29.50,ESE,108,1.0,11.0,78,0.00,,,0.00,WUHU216DAVISVP2,2013-02-21 16:21:00,
2013-02-21 11:25:00,23.5,17.6,29.50,East,94,5.0,11.0,78,0.00,,,0.00,WUHU216DAVISVP2,2013-02-21 16:25:00,
2013-02-21 11:26:00,23.5,17.4,29.51,East,100,0.0,11.0,77,0.00,,,0.00,WUHU216DAVISVP2,2013-02-21 16:26:00,
2013-02-21 11:30:00,23.5,17.4,29.50,SE,145,2.0,8.0,77,0.00,,,0.00,WUHU216DAVISVP2,2013-02-21 16:30:00,
2013-02-21 11:31:00,23.6,17.5,29.50,East,87,4.0,8.0,77,0.00,,,0.00,WUHU216DAVISVP2,2013-02-21 16:31:00,
2013-02-21 11:35:00,23.7,17.6,29.50,SE,132,4.0,8.0,77,0.00,,,0.00,WUHU216DAVISVP2,2013-02-21 16:35:00,
2013-02-21 11:36:00,23.6,17.5,29.50,SE,143,2.0,7.0,77,0.00,,,0.00,WUHU216DAVISVP2,2013-02-21 16:36:00,
2013-02-21 11:40:00,23.7,17.6,29.50,ESE,102,6.0,7.0,77,0.00,,,0.00,WUHU216DAVISVP2,2013-02-21 16:40:00,
2013-02-21 11:41:00,23.8,17.7,29.49,ENE,67,5.0,7.0,77,0.00,,,0.00,WUHU216DAVISVP2,2013-02-21 16:41:00,
2013-02-21 11:42:00,23.8,17.7,29.49,ESE,108,6.0,7.0,77,0.00,,,0.00,WUHU216DAVISVP2,2013-02-21 16:42:00,
2013-02-21 11:45:00,24.1,18.2,29.49,ESE,111,8.0,10.0,78,0.00,,,0.00,WUHU216DAVISVP2,2013-02-21 16:45:00,
2013-02-21 11:46:00,24.0,17.9,29.50,ESE,111,7.0,10.0,77,0.00,,,0.00,WUHU216DAVISVP2,2013-02-21 16:46:00,
2013-02-21 11:47:00,24.0,17.9,29.49,SE,134,6.0,10.0,77,0.00,,,0.00,WUHU216DAVISVP2,2013-02-21 16:47:00,
2013-02-21 11:50:00,24.0,17.9,29.49,ESE,104,5.0,10.0,77,0.00,,,0.00,WUHU216DAVISVP2,2013-02-21 16:50:00,
2013-02-21 11:51:00,24.0,17.9,29.49,ENE,76,7.0,10.0,77,0.00,,,0.00,WUHU216DAVISVP2,2013-02-21 16:51:00,
2013-02-21 11:52:00,24.0,17.9,29.49,East,79,6.0,10.0,77,0.00,,,0.00,WUHU216DAVISVP2,2013-02-21 16:52:00,
2013-02-21 11:55:00,24.1,17.7,29.49,East,79,6.0,10.0,76,0.00,,,0.00,WUHU216DAVISVP2,2013-02-21 16:55:00,
2013-02-21 11:56:00,24.1,17.7,29.49,East,97,8.0,10.0,76,0.00,,,0.00,WUHU216DAVISVP2,2013-02-21 16:56:00,
2013-02-21 11:57:00,24.0,17.6,29.49,ESE,103,5.0,10.0,76,0.00,,,0.00,WUHU216DAVISVP2,2013-02-21 16:57:00,
2013-02-21 12:00:00,24.1,18.0,29.48,East,93,6.0,9.0,77,0.00,,,0.00,WUHU216DAVISVP2,2013-02-21 17:00:00,
2013-02-21 12:01:00,24.1,18.0,29.48,East,87,5.0,9.0,77,0.00,,,0.00,WUHU216DAVISVP2,2013-02-21 17:01:00,
2013-02-21 12:02:00,24.0,17.6,29.48,East,95,7.0,9.0,76,0.00,,,0.00,WUHU216DAVISVP2,2013-02-21 17:02:00,
2013-02-21 12:05:00,24.0,17.9,29.48,East,93,7.0,10.0,77,0.00,,,0.00,WUHU216DAVISVP2,2013-02-21 17:05:00,
2013-02-21 12:06:00,24.1,18.0,29.48,East,93,5.0,10.0,77,0.00,,,0.00,WUHU216DAVISVP2,2013-02-21 17:06:00,
2013-02-21 12:07:00,24.1,18.0,29.48,ESE,103,6.0,10.0,77,0.00,,,0.00,WUHU216DAVISVP2,2013-02-21 17:07:00,
2013-02-21 12:11:00,24.3,17.9,29.47,ESE,102,7.0,10.0,76,0.00,,,0.00,WUHU216DAVISVP2,2013-02-21 17:11:00,
2013-02-21 12:12:00,24.3,17.9,29.47,ESE,123,7.0,10.0,76,0.00,,,0.00,WUHU216DAVISVP2,2013-02-21 17:12:00,
2013-02-21 12:13:00,24.4,17.9,29.47,ESE,114,6.0,10.0,76,0.00,,,0.00,WUHU216DAVISVP2,2013-02-21 17:13:00,
2013-02-21 12:16:00,24.5,18.0,29.47,ESE,107,7.0,10.0,76,0.00,,,0.00,WUHU216DAVISVP2,2013-02-21 17:16:00,
2013-02-21 12:17:00,24.7,18.2,29.48,ENE,61,10.0,10.0,76,0.00,,,0.00,WUHU216DAVISVP2,2013-02-21 17:17:00,
2013-02-21 12:18:00,24.8,18.3,29.48,SE,126,5.0,12.0,76,0.00,,,0.00,WUHU216DAVISVP2,2013-02-21 17:18:00,
2013-02-21 12:19:00,24.8,18.3,29.47,ESE,105,9.0,12.0,76,0.00,,,0.00,WUHU216DAVISVP2,2013-02-21 17:19:00,
2013-02-21 12:21:00,25.0,18.5,29.48,ESE,123,4.0,12.0,76,0.00,,,0.00,WUHU216DAVISVP2,2013-02-21 17:21:00,
2013-02-21 12:22:00,25.0,18.5,29.47,SE,136,4.0,12.0,76,0.00,,,0.00,WUHU216DAVISVP2,2013-02-21 17:22:00,
2013-02-21 12:23:00,25.1,18.3,29.47,SE,142,4.0,12.0,75,0.00,,,0.00,WUHU216DAVISVP2,2013-02-21 17:23:00,
2013-02-21 12:24:00,25.1,18.3,29.47,SE,125,8.0,12.0,75,0.00,,,0.00,WUHU216DAVISVP2,2013-02-21 17:24:00,
2013-02-21 12:26:00,25.0,18.2,29.47,ESE,112,11.0,12.0,75,0.00,,,0.00,WUHU216DAVISVP2,2013-02-21 17:26:00,
2013-02-21 12:27:00,25.0,18.2,29.47,ESE,116,6.0,12.0,75,0.00,,,0.00,WUHU216DAVISVP2,2013-02-21 17:27:00,
2013-02-21 12:28:00,24.9,17.8,29.48,ESE,120,3.0,12.0,74,0.00,,,0.00,WUHU216DAVISVP2,2013-02-21 17:28:00,
2013-02-21 12:29:00,24.9,18.1,29.48,ESE,110,5.0,12.0,75,0.00,,,0.00,WUHU216DAVISVP2,2013-02-21 17:29:00,
2013-02-21 12:31:00,25.0,18.2,29.48,SE,129,5.0,12.0,75,0.00,,,0.00,WUHU216DAVISVP2,2013-02-21 17:31:00,
2013-02-21 12:32:00,25.0,18.2,29.48,SSE,164,5.0,12.0,75,0.00,,,0.00,WUHU216DAVISVP2,2013-02-21 17:32:00,
2013-02-21 12:34:00,25.0,17.9,29.48,SE,143,5.0,12.0,74,0.00,,,0.00,WUHU216DAVISVP2,2013-02-21 17:34:00,
2013-02-21 12:35:00,25.0,17.9,29.48,SE,130,5.0,12.0,74,0.00,,,0.00,WUHU216DAVISVP2,2013-02-21 17:35:00,
2013-02-21 12:37:00,25.1,18.3,29.48,SSE,152,2.0,12.0,75,0.00,,,0.00,WUHU216DAVISVP2,2013-02-21 17:37:00,
2013-02-21 12:39:00,25.3,18.5,29.47,SSW,206,2.0,12.0,75,0.00,,,0.00,WUHU216DAVISVP2,2013-02-21 17:39:00,
2013-02-21 12:40:00,25.4,18.6,29.47,East,100,4.0,12.0,75,0.00,,,0.00,WUHU216DAVISVP2,2013-02-21 17:40:00,
2013-02-21 12:42:00,25.4,18.3,29.47,East,93,7.0,12.0,74,0.00,,,0.00,WUHU216DAVISVP2,2013-02-21 17:42:00,
2013-02-21 12:44:00,25.4,18.3,29.47,ESE,110,8.0,12.0,74,0.00,,,0.00,WUHU216DAVISVP2,2013-02-21 17:44:00,
2013-02-21 12:45:00,25.3,18.2,29.47,ESE,119,7.0,12.0,74,0.00,,,0.00,WUHU216DAVISVP2,2013-02-21 17:45:00,
2013-02-21 12:47:00,25.3,18.2,29.46,ESE,120,6.0,12.0,74,0.00,,,0.00,WUHU216DAVISVP2,2013-02-21 17:47:00,
2013-02-21 12:49:00,25.3,18.2,29.46,ESE,109,10.0,12.0,74,0.00,,,0.00,WUHU216DAVISVP2,2013-02-21 17:49:00,
2013-02-21 12:51:00,25.4,18.6,29.45,SE,131,6.0,12.0,75,0.00,,,0.00,WUHU216DAVISVP2,2013-02-21 17:51:00,
2013-02-21 12:52:00,25.5,18.7,29.45,SE,128,6.0,11.0,75,0.00,,,0.00,WUHU216DAVISVP2,2013-02-21 17:52:00,
2013-02-21 12:54:00,25.6,18.8,29.44,East,97,8.0,12.0,75,0.00,,,0.00,WUHU216DAVISVP2,2013-02-21 17:54:00,
2013-02-21 12:57:00,25.5,18.7,29.44,ESE,104,14.0,16.0,75,0.00,,,0.00,WUHU216DAVISVP2,2013-02-21 17:57:00,
2013-02-21 12:59:00,25.2,18.1,29.44,ESE,104,8.0,16.0,74,0.00,,,0.00,WUHU216DAVISVP2,2013-02-21 17:59:00,
2013-02-21 13:02:00,25.2,18.4,29.44,SE,133,5.0,16.0,75,0.00,,,0.00,WUHU216DAVISVP2,2013-02-21 18:02:00,
2013-02-21 13:03:00,25.2,18.4,29.44,SSE,167,5.0,16.0,75,0.00,,,0.00,WUHU216DAVISVP2,2013-02-21 18:03:00,
2013-02-21 13:04:00,25.3,18.8,29.44,SSE,147,4.0,16.0,76,0.00,,,0.00,WUHU216DAVISVP2,2013-02-21 18:04:00,
2013-02-21 13:07:00,25.5,18.7,29.44,SE,130,6.0,16.0,75,0.00,,,0.00,WUHU216DAVISVP2,2013-02-21 18:07:00,
2013-02-21 13:08:00,25.5,18.7,29.44,ESE,110,9.0,16.0,75,0.00,,,0.00,WUHU216DAVISVP2,2013-02-21 18:08:00,
2013-02-21 13:09:00,25.6,18.8,29.44,ESE,106,9.0,16.0,75,0.00,,,0.00,WUHU216DAVISVP2,2013-02-21 18:09:00,
2013-02-21 13:12:00,25.4,18.6,29.43,ESE,104,7.0,16.0,75,0.00,,,0.00,WUHU216DAVISVP2,2013-02-21 18:12:00,
2013-02-21 13:13:00,25.4,18.6,29.43,ESE,114,5.0,16.0,75,0.00,,,0.00,WUHU216DAVISVP2,2013-02-21 18:13:00,
2013-02-21 13:14:00,25.6,19.1,29.43,ESE,104,13.0,16.0,76,0.00,,,0.00,WUHU216DAVISVP2,2013-02-21 18:14:00,
2013-02-21 13:17:00,25.4,18.6,29.43,ESE,104,7.0,15.0,75,0.00,,,0.00,WUHU216DAVISVP2,2013-02-21 18:17:00,
2013-02-21 13:18:00,25.4,18.6,29.43,East,101,8.0,15.0,75,0.00,,,0.00,WUHU216DAVISVP2,2013-02-21 18:18:00,
2013-02-21 13:19:00,25.3,18.5,29.43,ESE,104,6.0,15.0,75,0.00,,,0.00,WUHU216DAVISVP2,2013-02-21 18:19:00,
2013-02-21 13:23:00,25.3,18.5,29.43,SE,130,9.0,15.0,75,0.00,,,0.00,WUHU216DAVISVP2,2013-02-21 18:23:00,
2013-02-21 13:25:00,25.3,18.5,29.43,SE,143,5.0,15.0,75,0.00,,,0.00,WUHU216DAVISVP2,2013-02-21 18:25:00,
2013-02-21 13:28:00,25.3,18.5,29.43,SE,133,10.0,15.0,75,0.00,,,0.00,WUHU216DAVISVP2,2013-02-21 18:28:00,
2013-02-21 13:30:00,25.3,18.5,29.43,ESE,120,7.0,15.0,75,0.00,,,0.00,WUHU216DAVISVP2,2013-02-21 18:30:00,
2013-02-21 13:33:00,25.5,19.0,29.42,East,80,8.0,15.0,76,0.00,,,0.00,WUHU216DAVISVP2,2013-02-21 18:33:00,
2013-02-21 13:35:00,25.6,19.1,29.43,ESE,114,13.0,13.0,76,0.00,,,0.00,WUHU216DAVISVP2,2013-02-21 18:35:00,
2013-02-21 13:38:00,25.6,18.8,29.43,ESE,110,9.0,13.0,75,0.00,,,0.00,WUHU216DAVISVP2,2013-02-21 18:38:00,
2013-02-21 13:41:00,25.6,19.1,29.43,ESE,108,11.0,13.0,76,0.00,,,0.00,WUHU216DAVISVP2,2013-02-21 18:41:00,
2013-02-21 13:43:00,25.5,18.7,29.43,SE,125,7.0,13.0,75,0.00,,,0.00,WUHU216DAVISVP2,2013-02-21 18:43:00,
2013-02-21 13:44:00,25.5,18.7,29.43,East,100,9.0,13.0,75,0.00,,,0.00,WUHU216DAVISVP2,2013-02-21 18:44:00,
2013-02-21 13:46:00,25.5,18.7,29.43,ESE,114,9.0,13.0,75,0.00,,,0.00,WUHU216DAVISVP2,2013-02-21 18:46:00,
2013-02-21 13:48:00,25.5,18.7,29.43,ESE,120,9.0,13.0,75,0.00,,,0.00,WUHU216DAVISVP2,2013-02-21 18:48:00,
2013-02-21 13:49:00,25.5,18.7,29.43,SE,125,11.0,13.0,75,0.00,,,0.00,WUHU216DAVISVP2,2013-02-21 18:49:00,
2013-02-21 13:51:00,25.3,18.5,29.42,ESE,118,10.0,14.0,75,0.00,,,0.00,WUHU216DAVISVP2,2013-02-21 18:51:00,
2013-02-21 13:53:00,25.3,18.5,29.42,SE,135,4.0,14.0,75,0.00,,,0.00,WUHU216DAVISVP2,2013-02-21 18:53:00,
2013-02-21 13:54:00,25.3,18.5,29.42,ESE,122,5.0,14.0,75,0.00,,,0.00,WUHU216DAVISVP2,2013-02-21 18:54:00,
2013-02-21 13:56:00,25.3,18.5,29.42,SE,126,5.0,14.0,75,0.00,,,0.00,WUHU216DAVISVP2,2013-02-21 18:56:00,
2013-02-21 13:58:00,25.5,18.7,29.42,SE,139,7.0,14.0,75,0.00,,,0.00,WUHU216DAVISVP2,2013-02-21 18:58:00,
2013-02-21 13:59:00,25.5,19.0,29.42,ESE,110,4.0,14.0,76,0.00,,,0.00,WUHU216DAVISVP2,2013-02-21 18:59:00,
2013-02-21 14:01:00,25.6,18.8,29.41,ESE,113,9.0,14.0,75,0.00,,,0.00,WUHU216DAVISVP2,2013-02-21 19:01:00,
2013-02-21 14:03:00,25.7,18.9,29.40,SE,124,4.0,14.0,75,0.00,,,0.00,WUHU216DAVISVP2,2013-02-21 19:03:00,
2013-02-21 14:04:00,25.8,19.0,29.40,ESE,123,11.0,14.0,75,0.00,,,0.00,WUHU216DAVISVP2,2013-02-21 19:04:00,
2013-02-21 14:05:00,25.8,19.0,29.40,East,92,8.0,14.0,75,0.00,,,0.00,WUHU216DAVISVP2,2013-02-21 19:05:00,
2013-02-21 14:07:00,25.7,18.6,29.40,ENE,66,7.0,14.0,74,0.00,,,0.00,WUHU216DAVISVP2,2013-02-21 19:07:00,
2013-02-21 14:09:00,25.7,18.9,29.40,ENE,75,7.0,15.0,75,0.00,,,0.00,WUHU216DAVISVP2,2013-02-21 19:09:00,
2013-02-21 14:10:00,25.7,18.9,29.40,East,87,7.0,15.0,75,0.00,,,0.00,WUHU216DAVISVP2,2013-02-21 19:10:00,
2013-02-21 14:12:00,25.7,18.9,29.40,ESE,108,6.0,15.0,75,0.00,,,0.00,WUHU216DAVISVP2,2013-02-21 19:12:00,
2013-02-21 14:14:00,25.7,18.9,29.40,SE,127,6.0,15.0,75,0.00,,,0.00,WUHU216DAVISVP2,2013-02-21 19:14:00,
2013-02-21 14:15:00,25.8,19.0,29.40,ESE,106,6.0,15.0,75,0.00,,,0.00,WUHU216DAVISVP2,2013-02-21 19:15:00,
2013-02-21 14:17:00,25.9,19.1,29.40,ESE,112,9.0,15.0,75,0.00,,,0.00,WUHU216DAVISVP2,2013-02-21 19:17:00,
2013-02-21 14:19:00,25.9,18.8,29.40,ESE,122,1.0,15.0,74,0.00,,,0.00,WUHU216DAVISVP2,2013-02-21 19:19:00,
2013-02-21 14:20:00,25.9,18.8,29.39,ESE,121,5.0,15.0,74,0.00,,,0.00,WUHU216DAVISVP2,2013-02-21 19:20:00,
2013-02-21 14:22:00,26.0,18.9,29.39,ESE,116,8.0,15.0,74,0.00,,,0.00,WUHU216DAVISVP2,2013-02-21 19:22:00,
2013-02-21 14:24:00,26.1,19.0,29.39,ESE,120,13.0,15.0,74,0.00,,,0.00,WUHU216DAVISVP2,2013-02-21 19:24:00,
2013-02-21 14:25:00,26.1,19.0,29.38,ESE,121,11.0,15.0,74,0.00,,,0.00,WUHU216DAVISVP2,2013-02-21 19:25:00,
2013-02-21 14:27:00,26.1,19.0,29.38,East,95,11.0,16.0,74,0.00,,,0.00,WUHU216DAVISVP2,2013-02-21 19:27:00,
2013-02-21 14:29:00,25.8,18.4,29.37,SE,131,8.0,16.0,73,0.00,,,0.00,WUHU216DAVISVP2,2013-02-21 19:29:00,
2013-02-21 14:30:00,25.8,18.7,29.37,SE,125,6.0,16.0,74,0.00,,,0.00,WUHU216DAVISVP2,2013-02-21 19:30:00,
2013-02-21 14:32:00,25.9,18.8,29.36,ESE,116,9.0,16.0,74,0.00,,,0.00,WUHU216DAVISVP2,2013-02-21 19:32:00,
2013-02-21 14:34:00,25.9,18.8,29.36,ESE,107,7.0,16.0,74,0.00,,,0.00,WUHU216DAVISVP2,2013-02-21 19:34:00,
2013-02-21 14:35:00,26.0,18.9,29.36,East,100,11.0,16.0,74,0.00,,,0.00,WUHU216DAVISVP2,2013-02-21 19:35:00,
2013-02-21 14:37:00,26.0,19.2,29.35,SE,131,7.0,16.0,75,0.00,,,0.00,WUHU216DAVISVP2,2013-02-21 19:37:00,
2013-02-21 14:40:00,26.3,19.5,29.35,SE,129,7.0,16.0,75,0.00,,,0.00,WUHU216DAVISVP2,2013-02-21 19:40:00,
2013-02-21 14:41:00,26.4,19.6,29.35,ESE,110,13.0,16.0,75,0.00,,,0.00,WUHU216DAVISVP2,2013-02-21 19:41:00,
2013-02-21 14:42:00,26.3,19.2,29.34,ESE,112,9.0,16.0,74,0.00,,,0.00,WUHU216DAVISVP2,2013-02-21 19:42:00,
2013-02-21 14:45:00,26.4,19.6,29.34,ESE,111,10.0,16.0,75,0.00,,,0.00,WUHU216DAVISVP2,2013-02-21 19:45:00,
2013-02-21 14:46:00,26.4,19.6,29.34,ESE,108,9.0,16.0,75,0.00,,,0.00,WUHU216DAVISVP2,2013-02-21 19:46:00,
2013-02-21 14:47:00,26.5,19.7,29.34,ESE,102,10.0,16.0,75,0.00,,,0.00,WUHU216DAVISVP2,2013-02-21 19:47:00,
2013-02-21 14:50:00,26.6,19.5,29.34,East,95,11.0,16.0,74,0.00,,,0.00,WUHU216DAVISVP2,2013-02-21 19:50:00,
2013-02-21 14:51:00,26.5,19.7,29.34,East,99,7.0,16.0,75,0.00,,,0.00,WUHU216DAVISVP2,2013-02-21 19:51:00,
2013-02-21 14:52:00,26.7,19.9,29.34,ESE,112,12.0,16.0,75,0.00,,,0.00,WUHU216DAVISVP2,2013-02-21 19:52:00,
2013-02-21 14:56:00,26.8,19.7,29.34,ESE,123,8.0,16.0,74,0.00,,,0.00,WUHU216DAVISVP2,2013-02-21 19:56:00,
2013-02-21 14:58:00,26.7,19.3,29.34,ESE,102,9.0,16.0,73,0.00,,,0.00,WUHU216DAVISVP2,2013-02-21 19:58:00,
2013-02-21 15:01:00,26.7,19.3,29.35,SE,131,8.0,16.0,73,0.00,,,0.00,WUHU216DAVISVP2,2013-02-21 20:01:00,
2013-02-21 15:03:00,26.7,19.3,29.36,SSE,152,7.0,16.0,73,0.00,,,0.00,WUHU216DAVISVP2,2013-02-21 20:03:00,
2013-02-21 15:07:00,26.9,19.8,29.37,SE,127,8.0,16.0,74,0.00,,,0.00,WUHU216DAVISVP2,2013-02-21 20:07:00,
2013-02-21 15:08:00,26.9,19.4,29.37,East,83,9.0,18.0,73,0.00,,,0.00,WUHU216DAVISVP2,2013-02-21 20:08:00,
2013-02-21 15:12:00,26.9,19.4,29.37,ESE,117,10.0,18.0,73,0.00,,,0.00,WUHU216DAVISVP2,2013-02-21 20:12:00,
2013-02-21 15:13:00,26.9,19.4,29.37,ESE,116,15.0,18.0,73,0.00,,,0.00,WUHU216DAVISVP2,2013-02-21 20:13:00,
2013-02-21 15:17:00,26.8,19.3,29.37,ESE,104,13.0,18.0,73,0.00,,,0.00,WUHU216DAVISVP2,2013-02-21 20:17:00,
2013-02-21 15:19:00,26.9,19.4,29.38,ESE,111,11.0,18.0,73,0.00,,,0.00,WUHU216DAVISVP2,2013-02-21 20:19:00,
2013-02-21 15:22:00,26.7,19.3,29.38,ESE,114,8.0,18.0,73,0.00,,,0.00,WUHU216DAVISVP2,2013-02-21 20:22:00,
2013-02-21 15:24:00,26.9,19.8,29.37,ESE,107,10.0,18.0,74,0.00,,,0.00,WUHU216DAVISVP2,2013-02-21 20:24:00,
2013-02-21 15:27:00,27.0,19.5,29.37,ESE,111,14.0,20.0,73,0.00,,,0.00,WUHU216DAVISVP2,2013-02-21 20:27:00,
2013-02-21 15:28:00,27.0,19.9,29.37,ESE,122,15.0,20.0,74,0.00,,,0.00,WUHU216DAVISVP2,2013-02-21 20:28:00,
2013-02-21 15:29:00,26.9,19.4,29.37,SE,139,10.0,20.0,73,0.00,,,0.00,WUHU216DAVISVP2,2013-02-21 20:29:00,
2013-02-21 15:32:00,26.8,19.3,29.37,SSE,157,8.0,20.0,73,0.00,,,0.00,WUHU216DAVISVP2,2013-02-21 20:32:00,
2013-02-21 15:33:00,26.8,19.7,29.37,ESE,109,12.0,20.0,74,0.00,,,0.00,WUHU216DAVISVP2,2013-02-21 20:33:00,
2013-02-21 15:34:00,26.8,19.7,29.36,ESE,108,16.0,20.0,74,0.00,,,0.00,WUHU216DAVISVP2,2013-02-21 20:34:00,
2013-02-21 15:37:00,26.7,19.6,29.36,SE,124,13.0,20.0,74,0.00,,,0.00,WUHU216DAVISVP2,2013-02-21 20:37:00,
2013-02-21 15:38:00,26.7,19.6,29.36,SE,129,11.0,20.0,74,0.00,,,0.00,WUHU216DAVISVP2,2013-02-21 20:38:00,
2013-02-21 15:40:00,26.7,19.6,29.36,ESE,112,14.0,20.0,74,0.00,,,0.00,WUHU216DAVISVP2,2013-02-21 20:40:00,
2013-02-21 15:42:00,26.6,19.5,29.36,East,101,13.0,20.0,74,0.00,,,0.00,WUHU216DAVISVP2,2013-02-21 20:42:00,
2013-02-21 15:43:00,26.6,19.5,29.36,SE,129,8.0,20.0,74,0.00,,,0.00,WUHU216DAVISVP2,2013-02-21 20:43:00,
2013-02-21 15:45:00,26.6,19.5,29.36,SE,131,7.0,20.0,74,0.00,,,0.00,WUHU216DAVISVP2,2013-02-21 20:45:00,
2013-02-21 15:48:00,26.7,19.9,29.36,ESE,115,13.0,20.0,75,0.00,,,0.00,WUHU216DAVISVP2,2013-02-21 20:48:00,
2013-02-21 15:50:00,26.8,20.0,29.36,ESE,106,13.0,20.0,75,0.00,,,0.00,WUHU216DAVISVP2,2013-02-21 20:50:00,
2013-02-21 15:53:00,27.0,20.2,29.37,ESE,112,10.0,20.0,75,0.00,,,0.00,WUHU216DAVISVP2,2013-02-21 20:53:00,
2013-02-21 15:54:00,27.0,20.2,29.37,ESE,110,12.0,20.0,75,0.00,,,0.00,WUHU216DAVISVP2,2013-02-21 20:54:00,
2013-02-21 15:55:00,27.1,20.3,29.37,ESE,106,12.0,20.0,75,0.00,,,0.00,WUHU216DAVISVP2,2013-02-21 20:55:00,
2013-02-21 15:58:00,27.0,19.9,29.38,SE,127,5.0,20.0,74,0.00,,,0.00,WUHU216DAVISVP2,2013-02-21 20:58:00,
2013-02-21 15:59:00,27.1,20.0,29.38,SE,125,4.0,19.0,74,0.00,,,0.00,WUHU216DAVISVP2,2013-02-21 20:59:00,
2013-02-21 16:00:00,27.1,20.0,29.38,ESE,111,9.0,19.0,74,0.00,,,0.00,WUHU216DAVISVP2,2013-02-21 21:00:00,
2013-02-21 16:03:00,27.1,20.0,29.38,ESE,122,10.0,16.0,74,0.00,,,0.00,WUHU216DAVISVP2,2013-02-21 21:03:00,
2013-02-21 16:04:00,27.1,20.0,29.38,East,93,10.0,16.0,74,0.00,,,0.00,WUHU216DAVISVP2,2013-02-21 21:04:00,
2013-02-21 16:05:00,27.1,20.0,29.38,ESE,117,8.0,16.0,74,0.00,,,0.00,WUHU216DAVISVP2,2013-02-21 21:05:00,
2013-02-21 16:09:00,27.2,20.0,29.38,East,93,12.0,18.0,74,0.00,,,0.00,WUHU216DAVISVP2,2013-02-21 21:09:00,
2013-02-21 16:10:00,27.2,20.0,29.38,ESE,110,12.0,18.0,74,0.00,,,0.00,WUHU216DAVISVP2,2013-02-21 21:10:00,
2013-02-21 16:14:00,27.2,20.0,29.38,ESE,122,9.0,18.0,74,0.00,,,0.00,WUHU216DAVISVP2,2013-02-21 21:14:00,
2013-02-21 16:16:00,27.2,20.0,29.39,ESE,109,7.0,18.0,74,0.00,,,0.00,WUHU216DAVISVP2,2013-02-21 21:16:00,
2013-02-21 16:19:00,27.4,20.2,29.39,SE,146,9.0,18.0,74,0.00,,,0.00,WUHU216DAVISVP2,2013-02-21 21:19:00,
2013-02-21 16:20:00,27.4,20.2,29.39,ESE,115,7.0,18.0,74,0.00,,,0.00,WUHU216DAVISVP2,2013-02-21 21:20:00,
2013-02-21 16:21:00,27.3,20.1,29.39,ESE,102,15.0,18.0,74,0.00,,,0.00,WUHU216DAVISVP2,2013-02-21 21:21:00,
2013-02-21 16:24:00,27.3,20.1,29.39,SE,127,6.0,18.0,74,0.00,,,0.00,WUHU216DAVISVP2,2013-02-21 21:24:00,
2013-02-21 16:25:00,27.3,20.1,29.39,SE,131,8.0,18.0,74,0.00,,,0.00,WUHU216DAVISVP2,2013-02-21 21:25:00,
2013-02-21 16:26:00,27.3,20.1,29.39,ESE,106,15.0,18.0,74,0.00,,,0.00,WUHU216DAVISVP2,2013-02-21 21:26:00,
2013-02-21 16:29:00,27.2,20.0,29.39,ESE,108,7.0,16.0,74,0.00,,,0.00,WUHU216DAVISVP2,2013-02-21 21:29:00,
2013-02-21 16:30:00,27.2,20.0,29.39,ESE,122,7.0,16.0,74,0.00,,,0.00,WUHU216DAVISVP2,2013-02-21 21:30:00,
2013-02-21 16:31:00,27.2,20.0,29.39,ESE,112,13.0,16.0,74,0.00,,,0.00,WUHU216DAVISVP2,2013-02-21 21:31:00,
2013-02-21 16:34:00,27.2,20.0,29.39,ESE,119,5.0,16.0,74,0.00,,,0.00,WUHU216DAVISVP2,2013-02-21 21:34:00,
2013-02-21 16:35:00,27.2,20.0,29.39,ESE,115,10.0,16.0,74,0.00,,,0.00,WUHU216DAVISVP2,2013-02-21 21:35:00,
2013-02-21 16:36:00,27.2,20.0,29.39,SSE,151,11.0,16.0,74,0.00,,,0.00,WUHU216DAVISVP2,2013-02-21 21:36:00,
2013-02-21 16:40:00,27.2,20.0,29.39,East,97,11.0,16.0,74,0.00,,,0.00,WUHU216DAVISVP2,2013-02-21 21:40:00,
2013-02-21 16:41:00,27.2,20.0,29.39,ESE,102,8.0,16.0,74,0.00,,,0.00,WUHU216DAVISVP2,2013-02-21 21:41:00,
2013-02-21 16:45:00,27.1,19.9,29.40,SE,129,5.0,16.0,74,0.00,,,0.00,WUHU216DAVISVP2,2013-02-21 21:45:00,
2013-02-21 16:46:00,27.1,19.9,29.40,SE,127,5.0,16.0,74,0.00,,,0.00,WUHU216DAVISVP2,2013-02-21 21:46:00,
2013-02-21 16:50:00,27.2,20.0,29.40,ESE,122,4.0,14.0,74,0.00,,,0.00,WUHU216DAVISVP2,2013-02-21 21:50:00,
2013-02-21 16:51:00,27.2,20.0,29.40,SE,141,6.0,13.0,74,0.00,,,0.00,WUHU216DAVISVP2,2013-02-21 21:51:00,
2013-02-21 16:55:00,27.2,20.0,29.40,SE,128,4.0,13.0,74,0.00,,,0.00,WUHU216DAVISVP2,2013-02-21 21:55:00,
2013-02-21 16:56:00,27.2,20.0,29.40,ESE,120,2.0,13.0,74,0.00,,,0.00,WUHU216DAVISVP2,2013-02-21 21:56:00,
2013-02-21 16:57:00,27.2,20.3,29.40,SE,131,8.0,13.0,75,0.00,,,0.00,WUHU216DAVISVP2,2013-02-21 21:57:00,
2013-02-21 17:00:00,27.2,20.3,29.41,SE,125,1.0,13.0,75,0.00,,,0.00,WUHU216DAVISVP2,2013-02-21 22:00:00,
2013-02-21 17:01:00,27.2,20.3,29.41,SE,125,4.0,13.0,75,0.00,,,0.00,WUHU216DAVISVP2,2013-02-21 22:01:00,
2013-02-21 17:02:00,27.2,20.3,29.41,SSE,160,4.0,13.0,75,0.00,,,0.00,WUHU216DAVISVP2,2013-02-21 22:02:00,
2013-02-21 17:05:00,27.3,20.4,29.41,SSE,161,9.0,13.0,75,0.00,,,0.00,WUHU216DAVISVP2,2013-02-21 22:05:00,
2013-02-21 17:06:00,27.3,20.4,29.41,ESE,122,1.0,13.0,75,0.00,,,0.00,WUHU216DAVISVP2,2013-02-21 22:06:00,
2013-02-21 17:07:00,27.2,20.0,29.41,ESE,119,5.0,13.0,74,0.00,,,0.00,WUHU216DAVISVP2,2013-02-21 22:07:00,
2013-02-21 17:10:00,27.2,20.0,29.40,ESE,120,5.0,13.0,74,0.00,,,0.00,WUHU216DAVISVP2,2013-02-21 22:10:00,
2013-02-21 17:11:00,27.2,20.0,29.40,SE,134,5.0,13.0,74,0.00,,,0.00,WUHU216DAVISVP2,2013-02-21 22:11:00,
2013-02-21 17:12:00,27.2,20.0,29.40,SE,126,6.0,13.0,74,0.00,,,0.00,WUHU216DAVISVP2,2013-02-21 22:12:00,
2013-02-21 17:15:00,27.2,20.3,29.40,East,101,1.0,12.0,75,0.00,,,0.00,WUHU216DAVISVP2,2013-02-21 22:15:00,
2013-02-21 17:16:00,27.2,20.3,29.40,ESE,122,5.0,11.0,75,0.00,,,0.00,WUHU216DAVISVP2,2013-02-21 22:16:00,
2013-02-21 17:17:00,27.2,20.3,29.40,ESE,112,5.0,11.0,75,0.00,,,0.00,WUHU216DAVISVP2,2013-02-21 22:17:00,
2013-02-21 17:20:00,27.2,20.3,29.41,East,95,8.0,11.0,75,0.00,,,0.00,WUHU216DAVISVP2,2013-02-21 22:20:00,
2013-02-21 17:21:00,27.2,20.3,29.41,ESE,122,5.0,11.0,75,0.00,,,0.00,WUHU216DAVISVP2,2013-02-21 22:21:00,
2013-02-21 17:22:00,27.2,20.3,29.40,ESE,120,5.0,11.0,75,0.00,,,0.00,WUHU216DAVISVP2,2013-02-21 22:22:00,
2013-02-21 17:26:00,27.1,19.9,29.40,ESE,115,5.0,13.0,74,0.00,,,0.00,WUHU216DAVISVP2,2013-02-21 22:26:00,
2013-02-21 17:27:00,27.1,20.2,29.39,SE,144,2.0,13.0,75,0.00,,,0.00,WUHU216DAVISVP2,2013-02-21 22:27:00,
2013-02-21 17:31:00,27.1,20.2,29.39,SE,129,4.0,13.0,75,0.00,,,0.00,WUHU216DAVISVP2,2013-02-21 22:31:00,
2013-02-21 17:32:00,27.1,20.2,29.39,ESE,122,10.0,13.0,75,0.00,,,0.00,WUHU216DAVISVP2,2013-02-21 22:32:00,
2013-02-21 17:36:00,27.0,20.1,29.38,ESE,123,4.0,14.0,75,0.00,,,0.00,WUHU216DAVISVP2,2013-02-21 22:36:00,
2013-02-21 17:37:00,27.0,20.2,29.37,SSE,151,8.0,14.0,75,0.00,,,0.00,WUHU216DAVISVP2,2013-02-21 22:37:00,
2013-02-21 17:38:00,27.0,20.2,29.37,SE,135,8.0,14.0,75,0.00,,,0.00,WUHU216DAVISVP2,2013-02-21 22:38:00,
2013-02-21 17:41:00,26.9,20.1,29.36,ESE,107,16.0,18.0,75,0.00,,,0.00,WUHU216DAVISVP2,2013-02-21 22:41:00,
2013-02-21 17:42:00,26.9,20.1,29.36,ESE,110,8.0,21.0,75,0.00,,,0.00,WUHU216DAVISVP2,2013-02-21 22:42:00,
2013-02-21 17:43:00,26.9,20.1,29.36,ESE,114,6.0,21.0,75,0.00,,,0.00,WUHU216DAVISVP2,2013-02-21 22:43:00,
2013-02-21 17:46:00,26.8,20.0,29.36,SE,133,8.0,21.0,75,0.00,,,0.00,WUHU216DAVISVP2,2013-02-21 22:46:00,
2013-02-21 17:47:00,26.9,20.1,29.36,SE,138,5.0,21.0,75,0.00,,,0.00,WUHU216DAVISVP2,2013-02-21 22:47:00,
2013-02-21 17:48:00,26.8,20.3,29.35,SE,131,5.0,21.0,76,0.00,,,0.00,WUHU216DAVISVP2,2013-02-21 22:48:00,
2013-02-21 17:51:00,26.8,20.3,29.36,ESE,122,6.0,21.0,76,0.00,,,0.00,WUHU216DAVISVP2,2013-02-21 22:51:00,
2013-02-21 17:52:00,26.9,20.4,29.36,ESE,122,6.0,21.0,76,0.00,,,0.00,WUHU216DAVISVP2,2013-02-21 22:52:00,
2013-02-21 17:53:00,26.9,20.4,29.36,SE,138,8.0,21.0,76,0.00,,,0.00,WUHU216DAVISVP2,2013-02-21 22:53:00,
2013-02-21 17:56:00,26.9,20.4,29.36,ESE,113,5.0,21.0,76,0.00,,,0.00,WUHU216DAVISVP2,2013-02-21 22:56:00,
2013-02-21 17:57:00,26.9,20.4,29.36,ESE,116,4.0,21.0,76,0.00,,,0.00,WUHU216DAVISVP2,2013-02-21 22:57:00,
2013-02-21 17:58:00,26.9,20.4,29.36,ESE,105,6.0,21.0,76,0.00,,,0.00,WUHU216DAVISVP2,2013-02-21 22:58:00,
2013-02-21 18:01:00,26.9,20.4,29.36,SE,145,13.0,21.0,76,0.00,,,0.00,WUHU216DAVISVP2,2013-02-21 23:01:00,
2013-02-21 18:02:00,27.0,20.2,29.36,SE,138,6.0,18.0,75,0.00,,,0.00,WUHU216DAVISVP2,2013-02-21 23:02:00,
2013-02-21 18:03:00,27.0,20.5,29.36,SE,137,6.0,18.0,76,0.00,,,0.00,WUHU216DAVISVP2,2013-02-21 23:03:00,
2013-02-21 18:06:00,27.0,20.2,29.36,ESE,108,7.0,18.0,75,0.00,,,0.00,WUHU216DAVISVP2,2013-02-21 23:06:00,
2013-02-21 18:07:00,27.0,20.2,29.36,SSE,148,6.0,18.0,75,0.00,,,0.00,WUHU216DAVISVP2,2013-02-21 23:07:00,
2013-02-21 18:08:00,27.0,20.2,29.36,SE,129,5.0,18.0,75,0.00,,,0.00,WUHU216DAVISVP2,2013-02-21 23:08:00,
2013-02-21 18:11:00,27.1,20.3,29.36,ESE,122,10.0,18.0,75,0.00,,,0.00,WUHU216DAVISVP2,2013-02-21 23:11:00,
2013-02-21 18:12:00,27.1,20.3,29.36,ESE,121,6.0,18.0,75,0.00,,,0.00,WUHU216DAVISVP2,2013-02-21 23:12:00,
2013-02-21 18:13:00,27.0,20.2,29.36,ESE,117,8.0,18.0,75,0.00,,,0.00,WUHU216DAVISVP2,2013-02-21 23:13:00,
2013-02-21 18:16:00,27.1,20.3,29.36,ESE,118,5.0,18.0,75,0.00,,,0.00,WUHU216DAVISVP2,2013-02-21 23:16:00,
2013-02-21 18:17:00,27.1,20.3,29.36,SE,128,7.0,18.0,75,0.00,,,0.00,WUHU216DAVISVP2,2013-02-21 23:17:00,
2013-02-21 18:18:00,27.1,20.3,29.36,SSE,159,8.0,18.0,75,0.00,,,0.00,WUHU216DAVISVP2,2013-02-21 23:18:00,
2013-02-21 18:21:00,27.0,20.2,29.35,SE,126,12.0,19.0,75,0.00,,,0.00,WUHU216DAVISVP2,2013-02-21 23:21:00,
2013-02-21 18:22:00,27.0,20.2,29.35,ESE,109,15.0,19.0,75,0.00,,,0.00,WUHU216DAVISVP2,2013-02-21 23:22:00,
2013-02-21 18:23:00,27.0,20.2,29.35,ESE,117,14.0,19.0,75,0.00,,,0.00,WUHU216DAVISVP2,2013-02-21 23:23:00,
2013-02-21 18:24:00,27.0,20.2,29.35,ESE,122,11.0,19.0,75,0.00,,,0.00,WUHU216DAVISVP2,2013-02-21 23:24:00,
2013-02-21 18:26:00,27.0,20.2,29.35,ESE,118,11.0,19.0,75,0.00,,,0.00,WUHU216DAVISVP2,2013-02-21 23:26:00,
2013-02-21 18:28:00,27.0,20.2,29.34,ESE,118,14.0,19.0,75,0.00,,,0.00,WUHU216DAVISVP2,2013-02-21 23:28:00,
2013-02-21 18:29:00,27.0,20.2,29.35,SE,129,6.0,19.0,75,0.00,,,0.00,WUHU216DAVISVP2,2013-02-21 23:29:00,
2013-02-21 18:31:00,27.0,20.2,29.35,ESE,116,12.0,19.0,75,0.00,,,0.00,WUHU216DAVISVP2,2013-02-21 23:31:00,
2013-02-21 18:33:00,27.0,20.2,29.35,ESE,122,12.0,19.0,75,0.00,,,0.00,WUHU216DAVISVP2,2013-02-21 23:33:00,
2013-02-21 18:34:00,27.0,20.2,29.35,SSE,147,8.0,19.0,75,0.00,,,0.00,WUHU216DAVISVP2,2013-02-21 23:34:00,
2013-02-21 18:37:00,27.1,20.3,29.35,SE,131,11.0,19.0,75,0.00,,,0.00,WUHU216DAVISVP2,2013-02-21 23:37:00,
2013-02-21 18:38:00,27.1,20.3,29.35,ESE,118,4.0,19.0,75,0.00,,,0.00,WUHU216DAVISVP2,2013-02-21 23:38:00,
2013-02-21 18:39:00,27.1,20.3,29.35,ESE,107,6.0,19.0,75,0.00,,,0.00,WUHU216DAVISVP2,2013-02-21 23:39:00,
2013-02-21 18:42:00,27.1,20.6,29.35,East,89,12.0,19.0,76,0.00,,,0.00,WUHU216DAVISVP2,2013-02-21 23:42:00,
2013-02-21 18:43:00,27.1,20.6,29.35,ESE,119,6.0,19.0,76,0.00,,,0.00,WUHU216DAVISVP2,2013-02-21 23:43:00,
2013-02-21 18:44:00,27.1,20.6,29.35,ESE,112,7.0,19.0,76,0.00,,,0.00,WUHU216DAVISVP2,2013-02-21 23:44:00,
2013-02-21 18:47:00,27.1,20.3,29.35,SSE,162,13.0,21.0,75,0.00,,,0.00,WUHU216DAVISVP2,2013-02-21 23:47:00,
2013-02-21 18:48:00,27.1,20.6,29.34,SE,137,14.0,21.0,76,0.00,,,0.00,WUHU216DAVISVP2,2013-02-21 23:48:00,
2013-02-21 18:49:00,27.1,20.6,29.34,ESE,109,23.0,23.0,76,0.00,,,0.00,WUHU216DAVISVP2,2013-02-21 23:49:00,
2013-02-21 18:50:00,27.1,20.3,29.34,SE,133,7.0,23.0,75,0.00,,,0.00,WUHU216DAVISVP2,2013-02-21 23:50:00,
2013-02-21 18:52:00,27.1,20.6,29.34,East,100,13.0,23.0,76,0.00,,,0.00,WUHU216DAVISVP2,2013-02-21 23:52:00,
2013-02-21 18:53:00,27.1,20.6,29.34,SE,130,12.0,23.0,76,0.00,,,0.00,WUHU216DAVISVP2,2013-02-21 23:53:00,
2013-02-21 18:54:00,27.1,20.6,29.34,ESE,110,9.0,23.0,76,0.00,,,0.00,WUHU216DAVISVP2,2013-02-21 23:54:00,
2013-02-21 18:55:00,27.1,20.6,29.34,ESE,118,8.0,23.0,76,0.00,,,0.00,WUHU216DAVISVP2,2013-02-21 23:55:00,
2013-02-21 18:57:00,27.1,20.6,29.34,SE,125,12.0,23.0,76,0.00,,,0.00,WUHU216DAVISVP2,2013-02-21 23:57:00,
2013-02-21 18:58:00,27.0,20.5,29.34,ESE,112,15.0,23.0,76,0.00,,,0.00,WUHU216DAVISVP2,2013-02-21 23:58:00,
2013-02-21 18:59:00,27.0,20.5,29.34,ESE,116,10.0,23.0,76,0.00,,,0.00,WUHU216DAVISVP2,2013-02-21 23:59:00,
2013-02-21 19:00:00,27.0,20.5,29.34,SE,125,13.0,23.0,76,0.00,,,0.00,WUHU216DAVISVP2,2013-02-22 00:00:00,
2013-02-21 19:02:00,27.0,20.5,29.34,SE,129,7.0,23.0,76,0.00,,,0.00,WUHU216DAVISVP2,2013-02-22 00:02:00,
2013-02-21 19:04:00,27.0,20.5,29.34,SE,146,8.0,23.0,76,0.00,,,0.00,WUHU216DAVISVP2,2013-02-22 00:04:00,
2013-02-21 19:05:00,27.0,20.5,29.34,SE,125,15.0,23.0,76,0.00,,,0.00,WUHU216DAVISVP2,2013-02-22 00:05:00,
2013-02-21 19:07:00,27.0,20.5,29.34,ESE,104,9.0,23.0,76,0.00,,,0.00,WUHU216DAVISVP2,2013-02-22 00:07:00,
2013-02-21 19:09:00,27.0,20.5,29.34,SE,124,11.0,22.0,76,0.00,,,0.00,WUHU216DAVISVP2,2013-02-22 00:09:00,
2013-02-21 19:10:00,27.0,20.5,29.34,SE,144,11.0,22.0,76,0.00,,,0.00,WUHU216DAVISVP2,2013-02-22 00:10:00,
2013-02-21 19:12:00,27.0,20.5,29.34,SE,124,12.0,22.0,76,0.00,,,0.00,WUHU216DAVISVP2,2013-02-22 00:12:00,
2013-02-21 19:14:00,26.9,20.4,29.34,SE,137,10.0,22.0,76,0.00,,,0.00,WUHU216DAVISVP2,2013-02-22 00:14:00,
2013-02-21 19:15:00,26.9,20.4,29.34,SE,143,11.0,22.0,76,0.00,,,0.00,WUHU216DAVISVP2,2013-02-22 00:15:00,
2013-02-21 19:17:00,26.9,20.4,29.34,ESE,119,5.0,22.0,76,0.00,,,0.00,WUHU216DAVISVP2,2013-02-22 00:17:00,
2013-02-21 19:19:00,26.9,20.4,29.34,SE,135,9.0,22.0,76,0.00,,,0.00,WUHU216DAVISVP2,2013-02-22 00:19:00,
2013-02-21 19:20:00,26.9,20.4,29.34,SE,133,4.0,20.0,76,0.00,,,0.00,WUHU216DAVISVP2,2013-02-22 00:20:00,
2013-02-21 19:22:00,26.9,20.4,29.34,SE,131,6.0,20.0,76,0.00,,,0.00,WUHU216DAVISVP2,2013-02-22 00:22:00,
2013-02-21 19:24:00,26.9,20.4,29.33,ESE,114,5.0,20.0,76,0.00,,,0.00,WUHU216DAVISVP2,2013-02-22 00:24:00,
2013-02-21 19:25:00,26.9,20.4,29.33,ESE,108,10.0,19.0,76,0.00,,,0.00,WUHU216DAVISVP2,2013-02-22 00:25:00,
2013-02-21 19:28:00,26.9,20.4,29.33,SE,131,8.0,19.0,76,0.00,,,0.00,WUHU216DAVISVP2,2013-02-22 00:28:00,
2013-02-21 19:29:00,26.9,20.4,29.33,ESE,106,10.0,19.0,76,0.00,,,0.00,WUHU216DAVISVP2,2013-02-22 00:29:00,
2013-02-21 19:30:00,26.9,20.4,29.33,ESE,122,10.0,19.0,76,0.00,,,0.00,WUHU216DAVISVP2,2013-02-22 00:30:00,
2013-02-21 19:31:00,26.9,20.4,29.33,SE,127,6.0,19.0,76,0.00,,,0.00,WUHU216DAVISVP2,2013-02-22 00:31:00,
2013-02-21 19:33:00,26.9,20.4,29.33,SE,139,5.0,18.0,76,0.00,,,0.00,WUHU216DAVISVP2,2013-02-22 00:33:00,
2013-02-21 19:34:00,26.9,20.4,29.34,ESE,110,5.0,18.0,76,0.00,,,0.00,WUHU216DAVISVP2,2013-02-22 00:34:00,
2013-02-21 19:35:00,26.9,20.4,29.34,ESE,120,14.0,18.0,76,0.00,,,0.00,WUHU216DAVISVP2,2013-02-22 00:35:00,
2013-02-21 19:37:00,26.9,20.4,29.33,SSE,151,8.0,18.0,76,0.00,,,0.00,WUHU216DAVISVP2,2013-02-22 00:37:00,
2013-02-21 19:38:00,26.9,20.4,29.33,SE,139,8.0,18.0,76,0.00,,,0.00,WUHU216DAVISVP2,2013-02-22 00:38:00,
2013-02-21 19:39:00,26.9,20.4,29.34,SE,134,2.0,18.0,76,0.00,,,0.00,WUHU216DAVISVP2,2013-02-22 00:39:00,
2013-02-21 19:40:00,26.9,20.7,29.34,ESE,122,9.0,18.0,77,0.00,,,0.00,WUHU216DAVISVP2,2013-02-22 00:40:00,
2013-02-21 19:42:00,26.9,20.7,29.34,ESE,118,8.0,18.0,77,0.00,,,0.00,WUHU216DAVISVP2,2013-02-22 00:42:00,
2013-02-21 19:43:00,26.9,20.7,29.34,SE,145,8.0,18.0,77,0.00,,,0.00,WUHU216DAVISVP2,2013-02-22 00:43:00,
2013-02-21 19:44:00,26.9,20.4,29.34,SE,125,7.0,18.0,76,0.00,,,0.00,WUHU216DAVISVP2,2013-02-22 00:44:00,
2013-02-21 19:45:00,26.9,20.4,29.34,SSE,147,4.0,18.0,76,0.00,,,0.00,WUHU216DAVISVP2,2013-02-22 00:45:00,
2013-02-21 19:48:00,26.9,20.7,29.34,East,86,12.0,18.0,77,0.00,,,0.00,WUHU216DAVISVP2,2013-02-22 00:48:00,
2013-02-21 19:49:00,26.9,20.7,29.34,SE,140,6.0,15.0,77,0.00,,,0.00,WUHU216DAVISVP2,2013-02-22 00:49:00,
2013-02-21 19:50:00,26.9,20.7,29.34,East,81,8.0,15.0,77,0.00,,,0.00,WUHU216DAVISVP2,2013-02-22 00:50:00,
2013-02-21 19:53:00,26.9,20.7,29.34,SE,126,5.0,18.0,77,0.00,,,0.00,WUHU216DAVISVP2,2013-02-22 00:53:00,
2013-02-21 19:55:00,26.8,20.6,29.34,ESE,114,5.0,18.0,77,0.00,,,0.00,WUHU216DAVISVP2,2013-02-22 00:55:00,
2013-02-21 19:58:00,26.9,20.7,29.34,SE,124,7.0,18.0,77,0.00,,,0.00,WUHU216DAVISVP2,2013-02-22 00:58:00,
2013-02-21 19:59:00,26.9,20.7,29.34,SE,131,6.0,18.0,77,0.00,,,0.00,WUHU216DAVISVP2,2013-02-22 00:59:00,
2013-02-21 20:00:00,26.8,20.6,29.34,SE,125,5.0,18.0,77,0.00,,,0.00,WUHU216DAVISVP2,2013-02-22 01:00:00,
2013-02-21 20:01:00,26.8,20.6,29.34,SE,135,10.0,18.0,77,0.00,,,0.00,WUHU216DAVISVP2,2013-02-22 01:01:00,
2013-02-21 20:03:00,26.8,20.6,29.34,ESE,108,13.0,18.0,77,0.00,,,0.00,WUHU216DAVISVP2,2013-02-22 01:03:00,
2013-02-21 20:04:00,26.8,20.6,29.34,ESE,118,11.0,18.0,77,0.00,,,0.00,WUHU216DAVISVP2,2013-02-22 01:04:00,
2013-02-21 20:05:00,26.8,20.6,29.34,ESE,120,5.0,18.0,77,0.00,,,0.00,WUHU216DAVISVP2,2013-02-22 01:05:00,
2013-02-21 20:06:00,26.8,20.6,29.34,SE,146,2.0,18.0,77,0.00,,,0.00,WUHU216DAVISVP2,2013-02-22 01:06:00,
2013-02-21 20:09:00,26.8,20.6,29.34,SE,128,4.0,18.0,77,0.00,,,0.00,WUHU216DAVISVP2,2013-02-22 01:09:00,
2013-02-21 20:10:00,26.8,20.6,29.34,SE,126,5.0,18.0,77,0.00,,,0.00,WUHU216DAVISVP2,2013-02-22 01:10:00,
2013-02-21 20:11:00,26.8,20.6,29.34,ESE,122,5.0,18.0,77,0.00,,,0.00,WUHU216DAVISVP2,2013-02-22 01:11:00,
2013-02-21 20:14:00,26.7,20.5,29.34,ESE,122,10.0,18.0,77,0.00,,,0.00,WUHU216DAVISVP2,2013-02-22 01:14:00,
2013-02-21 20:15:00,26.7,20.5,29.34,SE,131,3.0,18.0,77,0.00,,,0.00,WUHU216DAVISVP2,2013-02-22 01:15:00,
2013-02-21 20:16:00,26.7,20.5,29.34,SE,143,9.0,18.0,77,0.00,,,0.00,WUHU216DAVISVP2,2013-02-22 01:16:00,
2013-02-21 20:19:00,26.7,20.5,29.34,SE,134,6.0,18.0,77,0.00,,,0.00,WUHU216DAVISVP2,2013-02-22 01:19:00,
2013-02-21 20:21:00,26.7,20.5,29.34,ESE,107,6.0,18.0,77,0.00,,,0.00,WUHU216DAVISVP2,2013-02-22 01:21:00,
2013-02-21 20:24:00,26.7,20.8,29.33,ESE,111,5.0,14.0,78,0.00,,,0.00,WUHU216DAVISVP2,2013-02-22 01:24:00,
2013-02-21 20:26:00,26.6,20.7,29.33,SE,135,5.0,15.0,78,0.00,,,0.00,WUHU216DAVISVP2,2013-02-22 01:26:00,
2013-02-21 20:29:00,26.6,20.4,29.33,SSE,162,8.0,15.0,77,0.00,,,0.00,WUHU216DAVISVP2,2013-02-22 01:29:00,
2013-02-21 20:31:00,26.6,20.4,29.33,SE,141,4.0,15.0,77,0.00,,,0.00,WUHU216DAVISVP2,2013-02-22 01:31:00,
2013-02-21 20:34:00,26.6,20.7,29.33,SE,143,11.0,15.0,78,0.00,,,0.00,WUHU216DAVISVP2,2013-02-22 01:34:00,
2013-02-21 20:36:00,26.6,20.7,29.33,ESE,120,9.0,15.0,78,0.00,,,0.00,WUHU216DAVISVP2,2013-02-22 01:36:00,
2013-02-21 20:39:00,26.6,20.4,29.32,SE,137,4.0,15.0,77,0.00,,,0.00,WUHU216DAVISVP2,2013-02-22 01:39:00,
2013-02-21 20:40:00,26.6,20.4,29.32,SE,138,6.0,15.0,77,0.00,,,0.00,WUHU216DAVISVP2,2013-02-22 01:40:00,
2013-02-21 20:41:00,26.6,20.4,29.32,SE,134,5.0,15.0,77,0.00,,,0.00,WUHU216DAVISVP2,2013-02-22 01:41:00,
2013-02-21 20:42:00,26.5,20.6,29.32,ESE,108,10.0,15.0,78,0.00,,,0.00,WUHU216DAVISVP2,2013-02-22 01:42:00,
2013-02-21 20:45:00,26.5,20.6,29.32,ESE,119,11.0,18.0,78,0.00,,,0.00,WUHU216DAVISVP2,2013-02-22 01:45:00,
2013-02-21 20:46:00,26.5,20.6,29.32,SSE,148,8.0,18.0,78,0.00,,,0.00,WUHU216DAVISVP2,2013-02-22 01:46:00,
2013-02-21 20:47:00,26.5,20.6,29.32,SE,132,10.0,18.0,78,0.00,,,0.00,WUHU216DAVISVP2,2013-02-22 01:47:00,
2013-02-21 20:50:00,26.4,20.5,29.32,SE,127,5.0,18.0,78,0.00,,,0.00,WUHU216DAVISVP2,2013-02-22 01:50:00,
2013-02-21 20:51:00,26.4,20.5,29.32,SE,141,7.0,18.0,78,0.00,,,0.00,WUHU216DAVISVP2,2013-02-22 01:51:00,
2013-02-21 20:52:00,26.4,20.5,29.32,SE,137,5.0,18.0,78,0.00,,,0.00,WUHU216DAVISVP2,2013-02-22 01:52:00,
2013-02-21 20:55:00,26.3,20.4,29.32,ESE,107,9.0,18.0,78,0.00,,,0.00,WUHU216DAVISVP2,2013-02-22 01:55:00,
2013-02-21 20:56:00,26.3,20.4,29.31,SE,139,11.0,18.0,78,0.00,,,0.00,WUHU216DAVISVP2,2013-02-22 01:56:00,
2013-02-21 20:57:00,26.3,20.4,29.31,ESE,103,11.0,18.0,78,0.00,,,0.00,WUHU216DAVISVP2,2013-02-22 01:57:00,
2013-02-21 21:00:00,26.3,20.4,29.31,ESE,114,14.0,18.0,78,0.00,,,0.00,WUHU216DAVISVP2,2013-02-22 02:00:00,
2013-02-21 21:01:00,26.3,20.4,29.31,East,100,16.0,19.0,78,0.00,,,0.00,WUHU216DAVISVP2,2013-02-22 02:01:00,
2013-02-21 21:02:00,26.2,20.3,29.31,SE,124,4.0,19.0,78,0.00,,,0.00,WUHU216DAVISVP2,2013-02-22 02:02:00,
2013-02-21 21:05:00,26.2,20.6,29.30,SE,127,10.0,19.0,79,0.00,,,0.00,WUHU216DAVISVP2,2013-02-22 02:05:00,
2013-02-21 21:06:00,26.2,20.6,29.30,SE,125,11.0,19.0,79,0.00,,,0.00,WUHU216DAVISVP2,2013-02-22 02:06:00,
2013-02-21 21:07:00,26.1,20.5,29.30,SE,135,10.0,19.0,79,0.00,,,0.00,WUHU216DAVISVP2,2013-02-22 02:07:00,
2013-02-21 21:10:00,26.1,20.5,29.29,SE,134,9.0,24.0,79,0.00,,,0.00,WUHU216DAVISVP2,2013-02-22 02:10:00,
2013-02-21 21:11:00,26.1,20.5,29.29,SE,130,7.0,24.0,79,0.00,,,0.00,WUHU216DAVISVP2,2013-02-22 02:11:00,
2013-02-21 21:12:00,26.1,20.5,29.29,SE,124,6.0,24.0,79,0.00,,,0.00,WUHU216DAVISVP2,2013-02-22 02:12:00,
2013-02-21 21:15:00,26.1,20.5,29.30,SSE,156,9.0,24.0,79,0.00,,,0.00,WUHU216DAVISVP2,2013-02-22 02:15:00,
2013-02-21 21:16:00,26.1,20.5,29.30,SE,139,7.0,24.0,79,0.00,,,0.00,WUHU216DAVISVP2,2013-02-22 02:16:00,
2013-02-21 21:18:00,26.1,20.5,29.30,SSE,147,10.0,24.0,79,0.00,,,0.00,WUHU216DAVISVP2,2013-02-22 02:18:00,
2013-02-21 21:20:00,26.1,20.5,29.30,SE,130,8.0,24.0,79,0.00,,,0.00,WUHU216DAVISVP2,2013-02-22 02:20:00,
2013-02-21 21:21:00,26.1,20.5,29.30,SE,139,13.0,24.0,79,0.00,,,0.00,WUHU216DAVISVP2,2013-02-22 02:21:00,
2013-02-21 21:23:00,26.1,20.5,29.31,South,174,10.0,24.0,79,0.00,,,0.00,WUHU216DAVISVP2,2013-02-22 02:23:00,
2013-02-21 21:26:00,26.1,20.8,29.31,ESE,116,8.0,24.0,80,0.00,,,0.00,WUHU216DAVISVP2,2013-02-22 02:26:00,
2013-02-21 21:27:00,26.1,20.8,29.31,SE,140,7.0,20.0,80,0.00,,,0.00,WUHU216DAVISVP2,2013-02-22 02:27:00,
2013-02-21 21:28:00,26.1,20.8,29.31,SE,135,9.0,20.0,80,0.00,,,0.00,WUHU216DAVISVP2,2013-02-22 02:28:00,
2013-02-21 21:31:00,26.1,20.8,29.32,SE,130,0.0,20.0,80,0.00,,,0.00,WUHU216DAVISVP2,2013-02-22 02:31:00,
2013-02-21 21:32:00,26.2,20.9,29.32,SE,126,6.0,20.0,80,0.00,,,0.00,WUHU216DAVISVP2,2013-02-22 02:32:00,
2013-02-21 21:33:00,26.2,20.9,29.32,ESE,104,6.0,20.0,80,0.00,,,0.00,WUHU216DAVISVP2,2013-02-22 02:33:00,
2013-02-21 21:36:00,26.2,20.9,29.33,SE,131,6.0,20.0,80,0.00,,,0.00,WUHU216DAVISVP2,2013-02-22 02:36:00,
2013-02-21 21:37:00,26.2,20.9,29.33,South,178,7.0,20.0,80,0.00,,,0.00,WUHU216DAVISVP2,2013-02-22 02:37:00,
2013-02-21 21:38:00,26.2,20.9,29.33,SE,133,5.0,20.0,80,0.00,,,0.00,WUHU216DAVISVP2,2013-02-22 02:38:00,
2013-02-21 21:41:00,26.3,21.0,29.32,SE,130,6.0,18.0,80,0.00,,,0.00,WUHU216DAVISVP2,2013-02-22 02:41:00,
2013-02-21 21:42:00,26.3,21.0,29.32,SE,145,5.0,18.0,80,0.00,,,0.00,WUHU216DAVISVP2,2013-02-22 02:42:00,
2013-02-21 21:43:00,26.3,21.0,29.33,SSE,162,8.0,18.0,80,0.00,,,0.00,WUHU216DAVISVP2,2013-02-22 02:43:00,
2013-02-21 21:46:00,26.3,21.0,29.33,SE,133,5.0,18.0,80,0.00,,,0.00,WUHU216DAVISVP2,2013-02-22 02:46:00,
2013-02-21 21:47:00,26.4,21.1,29.33,ESE,122,2.0,18.0,80,0.00,,,0.00,WUHU216DAVISVP2,2013-02-22 02:47:00,
2013-02-21 21:48:00,26.4,21.1,29.33,ESE,106,4.0,15.0,80,0.00,,,0.00,WUHU216DAVISVP2,2013-02-22 02:48:00,
2013-02-21 21:51:00,26.4,21.1,29.32,SE,134,8.0,15.0,80,0.00,,,0.00,WUHU216DAVISVP2,2013-02-22 02:51:00,
2013-02-21 21:52:00,26.4,20.8,29.32,SE,146,7.0,15.0,79,0.00,,,0.00,WUHU216DAVISVP2,2013-02-22 02:52:00,
2013-02-21 21:53:00,26.4,20.8,29.32,SE,125,7.0,15.0,79,0.00,,,0.00,WUHU216DAVISVP2,2013-02-22 02:53:00,
2013-02-21 21:57:00,26.3,21.0,29.31,SE,135,11.0,15.0,80,0.00,,,0.00,WUHU216DAVISVP2,2013-02-22 02:57:00,
2013-02-21 21:58:00,26.2,20.9,29.31,SE,125,6.0,15.0,80,0.00,,,0.00,WUHU216DAVISVP2,2013-02-22 02:58:00,
2013-02-21 21:59:00,26.2,20.9,29.31,SSE,150,15.0,16.0,80,0.00,,,0.00,WUHU216DAVISVP2,2013-02-22 02:59:00,
2013-02-21 22:02:00,26.2,20.9,29.30,SE,131,10.0,18.0,80,0.00,,,0.00,WUHU216DAVISVP2,2013-02-22 03:02:00,
2013-02-21 22:03:00,26.1,20.8,29.30,SE,127,8.0,18.0,80,0.00,,,0.00,WUHU216DAVISVP2,2013-02-22 03:03:00,
2013-02-21 22:04:00,26.1,20.8,29.30,SE,144,7.0,18.0,80,0.00,,,0.00,WUHU216DAVISVP2,2013-02-22 03:04:00,
2013-02-21 22:07:00,26.1,20.8,29.29,ESE,106,9.0,18.0,80,0.00,,,0.00,WUHU216DAVISVP2,2013-02-22 03:07:00,
2013-02-21 22:08:00,26.1,20.8,29.29,SE,133,7.0,18.0,80,0.00,,,0.00,WUHU216DAVISVP2,2013-02-22 03:08:00,
2013-02-21 22:09:00,26.1,20.8,29.29,SE,130,11.0,18.0,80,0.00,,,0.00,WUHU216DAVISVP2,2013-02-22 03:09:00,
2013-02-21 22:12:00,26.1,20.8,29.29,SE,134,8.0,18.0,80,0.00,,,0.00,WUHU216DAVISVP2,2013-02-22 03:12:00,
2013-02-21 22:13:00,26.1,20.8,29.29,SSE,164,10.0,18.0,80,0.00,,,0.00,WUHU216DAVISVP2,2013-02-22 03:13:00,
2013-02-21 22:14:00,26.1,20.8,29.29,SSE,166,11.0,18.0,80,0.00,,,0.00,WUHU216DAVISVP2,2013-02-22 03:14:00,
2013-02-21 22:17:00,26.1,20.8,29.29,SE,142,8.0,18.0,80,0.00,,,0.00,WUHU216DAVISVP2,2013-02-22 03:17:00,
2013-02-21 22:18:00,26.1,20.8,29.29,ESE,120,8.0,18.0,80,0.00,,,0.00,WUHU216DAVISVP2,2013-02-22 03:18:00,
2013-02-21 22:19:00,26.0,20.7,29.29,ESE,117,8.0,18.0,80,0.00,,,0.00,WUHU216DAVISVP2,2013-02-22 03:19:00,
2013-02-21 22:22:00,26.0,20.7,29.28,SE,126,11.0,18.0,80,0.00,,,0.00,WUHU216DAVISVP2,2013-02-22 03:22:00,
2013-02-21 22:23:00,26.0,20.7,29.28,ESE,114,8.0,18.0,80,0.00,,,0.00,WUHU216DAVISVP2,2013-02-22 03:23:00,
2013-02-21 22:24:00,26.0,20.7,29.28,SE,141,7.0,18.0,80,0.00,,,0.00,WUHU216DAVISVP2,2013-02-22 03:24:00,
2013-02-21 22:27:00,26.0,20.7,29.28,ESE,112,10.0,18.0,80,0.00,,,0.00,WUHU216DAVISVP2,2013-02-22 03:27:00,
2013-02-21 22:28:00,26.0,20.7,29.28,ESE,123,8.0,18.0,80,0.00,,,0.00,WUHU216DAVISVP2,2013-02-22 03:28:00,
2013-02-21 22:29:00,26.0,20.7,29.28,SE,131,8.0,18.0,80,0.00,,,0.00,WUHU216DAVISVP2,2013-02-22 03:29:00,
2013-02-21 22:32:00,26.0,20.7,29.27,SE,125,10.0,18.0,80,0.00,,,0.00,WUHU216DAVISVP2,2013-02-22 03:32:00,
2013-02-21 22:33:00,26.0,20.7,29.27,ESE,111,10.0,18.0,80,0.00,,,0.00,WUHU216DAVISVP2,2013-02-22 03:33:00,
2013-02-21 22:34:00,26.0,20.7,29.27,East,100,12.0,23.0,80,0.00,,,0.00,WUHU216DAVISVP2,2013-02-22 03:34:00,
2013-02-21 22:37:00,25.9,20.6,29.27,ESE,115,6.0,23.0,80,0.00,,,0.00,WUHU216DAVISVP2,2013-02-22 03:37:00,
2013-02-21 22:38:00,25.8,20.5,29.26,SE,128,14.0,23.0,80,0.00,,,0.00,WUHU216DAVISVP2,2013-02-22 03:38:00,
2013-02-21 22:39:00,25.8,20.5,29.26,ESE,112,13.0,23.0,80,0.00,,,0.00,WUHU216DAVISVP2,2013-02-22 03:39:00,
2013-02-21 22:42:00,25.7,20.7,29.25,SE,125,10.0,23.0,81,0.00,,,0.00,WUHU216DAVISVP2,2013-02-22 03:42:00,
2013-02-21 22:43:00,25.7,20.7,29.25,SE,132,7.0,23.0,81,0.00,,,0.00,WUHU216DAVISVP2,2013-02-22 03:43:00,
2013-02-21 22:44:00,25.6,20.6,29.25,SE,125,10.0,23.0,81,0.00,,,0.00,WUHU216DAVISVP2,2013-02-22 03:44:00,
2013-02-21 22:45:00,25.6,20.6,29.25,SE,139,12.0,23.0,81,0.00,,,0.00,WUHU216DAVISVP2,2013-02-22 03:45:00,
2013-02-21 22:47:00,25.5,20.5,29.25,SE,146,14.0,23.0,81,0.00,,,0.00,WUHU216DAVISVP2,2013-02-22 03:47:00,
2013-02-21 22:49:00,25.5,20.5,29.24,ESE,122,14.0,23.0,81,0.00,,,0.00,WUHU216DAVISVP2,2013-02-22 03:49:00,
2013-02-21 22:50:00,25.5,20.8,29.24,SE,145,11.0,23.0,82,0.00,,,0.00,WUHU216DAVISVP2,2013-02-22 03:50:00,
2013-02-21 22:52:00,25.4,20.7,29.24,ESE,122,14.0,23.0,82,0.00,,,0.00,WUHU216DAVISVP2,2013-02-22 03:52:00,
2013-02-21 22:54:00,25.4,20.7,29.24,SE,125,11.0,23.0,82,0.00,,,0.00,WUHU216DAVISVP2,2013-02-22 03:54:00,
2013-02-21 22:55:00,25.3,20.6,29.24,SE,130,12.0,23.0,82,0.00,,,0.00,WUHU216DAVISVP2,2013-02-22 03:55:00,
2013-02-21 22:57:00,25.2,20.7,29.24,SE,127,18.0,24.0,83,0.00,,,0.00,WUHU216DAVISVP2,2013-02-22 03:57:00,
2013-02-21 22:59:00,25.0,20.8,29.24,SE,131,13.0,24.0,84,0.00,,,0.00,WUHU216DAVISVP2,2013-02-22 03:59:00,
2013-02-21 23:00:00,24.9,20.7,29.24,ESE,122,15.0,24.0,84,0.00,,,0.00,WUHU216DAVISVP2,2013-02-22 04:00:00,
2013-02-21 23:02:00,24.7,21.1,29.23,SE,141,15.0,24.0,86,0.00,,,0.00,WUHU216DAVISVP2,2013-02-22 04:02:00,
2013-02-21 23:04:00,24.7,21.1,29.23,SE,125,9.0,24.0,86,0.00,,,0.00,WUHU216DAVISVP2,2013-02-22 04:04:00,
2013-02-21 23:05:00,24.6,21.0,29.23,SE,130,15.0,24.0,86,0.00,,,0.00,WUHU216DAVISVP2,2013-02-22 04:05:00,
2013-02-21 23:08:00,24.6,21.2,29.23,East,85,12.0,24.0,87,0.00,,,0.00,WUHU216DAVISVP2,2013-02-22 04:08:00,
2013-02-21 23:09:00,24.5,21.1,29.23,ESE,107,15.0,24.0,87,0.00,,,0.00,WUHU216DAVISVP2,2013-02-22 04:09:00,
2013-02-21 23:10:00,24.5,21.1,29.23,SE,141,7.0,24.0,87,0.00,,,0.00,WUHU216DAVISVP2,2013-02-22 04:10:00,
2013-02-21 23:13:00,24.5,21.4,29.23,SE,129,7.0,24.0,88,0.00,,,0.00,WUHU216DAVISVP2,2013-02-22 04:13:00,
2013-02-21 23:15:00,24.5,21.4,29.23,ESE,110,12.0,24.0,88,0.00,,,0.00,WUHU216DAVISVP2,2013-02-22 04:15:00,
2013-02-21 23:18:00,24.5,21.4,29.23,SE,142,11.0,25.0,88,0.00,,,0.00,WUHU216DAVISVP2,2013-02-22 04:18:00,
2013-02-21 23:20:00,24.4,21.3,29.23,ESE,122,7.0,25.0,88,0.00,,,0.00,WUHU216DAVISVP2,2013-02-22 04:20:00,
2013-02-21 23:23:00,24.3,21.2,29.23,SE,125,8.0,25.0,88,0.00,,,0.00,WUHU216DAVISVP2,2013-02-22 04:23:00,
2013-02-21 23:25:00,24.3,21.2,29.23,ESE,116,13.0,25.0,88,0.00,,,0.00,WUHU216DAVISVP2,2013-02-22 04:25:00,
2013-02-21 23:28:00,24.3,21.2,29.23,SE,129,9.0,25.0,88,0.00,,,0.00,WUHU216DAVISVP2,2013-02-22 04:28:00,
2013-02-21 23:30:00,24.3,21.2,29.23,ESE,106,9.0,25.0,88,0.00,,,0.00,WUHU216DAVISVP2,2013-02-22 04:30:00,
2013-02-21 23:31:00,24.3,21.5,29.23,ESE,108,11.0,25.0,89,0.00,,,0.00,WUHU216DAVISVP2,2013-02-22 04:31:00,
2013-02-21 23:33:00,24.2,21.4,29.23,SE,125,6.0,25.0,89,0.00,,,0.00,WUHU216DAVISVP2,2013-02-22 04:33:00,
2013-02-21 23:35:00,24.1,21.3,29.22,ESE,108,10.0,20.0,89,0.00,,,0.00,WUHU216DAVISVP2,2013-02-22 04:35:00,
2013-02-21 23:36:00,24.1,21.3,29.22,SE,125,11.0,20.0,89,0.00,,,0.00,WUHU216DAVISVP2,2013-02-22 04:36:00,
2013-02-21 23:38:00,24.0,21.2,29.23,ESE,108,6.0,21.0,89,0.00,,,0.00,WUHU216DAVISVP2,2013-02-22 04:38:00,
2013-02-21 23:40:00,23.9,21.1,29.23,SE,131,10.0,21.0,89,0.00,,,0.00,WUHU216DAVISVP2,2013-02-22 04:40:00,
2013-02-21 23:41:00,23.9,21.1,29.22,SE,127,8.0,21.0,89,0.00,,,0.00,WUHU216DAVISVP2,2013-02-22 04:41:00,
2013-02-21 23:43:00,23.8,21.2,29.22,ESE,123,10.0,21.0,90,0.00,,,0.00,WUHU216DAVISVP2,2013-02-22 04:43:00,
2013-02-21 23:45:00,23.8,21.3,29.22,SE,126,7.0,23.0,90,0.00,,,0.00,WUHU216DAVISVP2,2013-02-22 04:45:00,
2013-02-21 23:46:00,23.8,21.3,29.22,ESE,102,13.0,23.0,90,0.00,,,0.00,WUHU216DAVISVP2,2013-02-22 04:46:00,
2013-02-21 23:47:00,23.8,21.3,29.22,SE,124,19.0,23.0,90,0.00,,,0.00,WUHU216DAVISVP2,2013-02-22 04:47:00,
2013-02-21 23:48:00,23.8,21.3,29.22,SE,134,9.0,23.0,90,0.00,,,0.00,WUHU216DAVISVP2,2013-02-22 04:48:00,
2013-02-21 23:51:00,23.7,21.2,29.22,SE,134,11.0,23.0,90,0.00,,,0.00,WUHU216DAVISVP2,2013-02-22 04:51:00,
2013-02-21 23:52:00,23.7,21.2,29.22,ESE,113,16.0,23.0,90,0.00,,,0.00,WUHU216DAVISVP2,2013-02-22 04:52:00,
2013-02-21 23:53:00,23.7,21.2,29.22,ESE,115,6.0,23.0,90,0.00,,,0.00,WUHU216DAVISVP2,2013-02-22 04:53:00,
2013-02-21 23:56:00,23.7,21.2,29.22,SE,133,7.0,23.0,90,0.00,,,0.00,WUHU216DAVISVP2,2013-02-22 04:56:00,
2013-02-21 23:57:00,23.6,21.1,29.22,SE,136,11.0,23.0,90,0.00,,,0.00,WUHU216DAVISVP2,2013-02-22 04:57:00,
2013-02-21 23:58:00,23.7,21.2,29.22,SSE,147,12.0,23.0,90,0.00,,,0.00,WUHU216DAVISVP2,2013-02-22 04:58:00,